GFSMW_sfc_dewp_000.txt.gz
Dewpoint
60 63 65 66 67 69 71 73 73 74 74 74 69 69 68 69 71 69 74 74 73 74 73 70 72 72 70 69 69 66 65 60 64 60 59 61 63 62 62 59 54 57 58
59 63 65 65 66 69 71 73 74 75 75 71 73 71 73 68 70 70 73 73 73 74 73 73 71 72 66 70 67 67 61 61 63 60 59 54 59 61 59 58 52 54 53
59 61 63 65 65 68 71 73 75 75 76 75 73 73 74 74 70 71 72 74 74 75 75 74 71 71 67 60 67 66 65 58 65 66 60 54 52 55 58 60 54 55 52
60 61 62 64 65 67 70 73 75 76 76 77 74 76 70 67 66 68 67 71 74 74 74 74 72 69 63 67 65 65 64 65 60 61 63 65 63 54 53 55 54 56 53
58 60 61 63 65 66 68 71 75 77 77 77 77 73 74 68 67 67 72 74 74 74 71 74 70 68 64 68 68 67 67 63 61 59 60 63 59 62 54 49 52 54 55
54 59 61 62 64 65 67 69 74 77 77 76 76 76 74 73 67 70 68 66 66 70 72 73 70 68 65 67 66 67 66 65 64 61 62 57 55 54 53 51 53 53 54
53 56 59 61 63 65 67 68 73 75 76 76 75 76 76 75 74 72 69 67 64 64 70 73 70 66 68 67 66 67 65 65 63 65 59 59 58 57 55 54 52 52 54
51 54 58 60 63 64 66 68 71 74 75 75 77 78 77 73 72 73 68 66 64 63 67 72 69 67 67 66 65 62 61 63 62 64 65 59 58 57 57 56 56 54 52
52 52 56 59 62 64 67 70 73 74 74 73 75 76 77 76 72 74 73 69 70 63 68 69 68 66 67 65 65 60 62 62 63 62 64 62 56 55 56 57 58 56 51
52 51 54 57 60 63 65 68 70 73 73 73 73 74 75 76 75 74 74 72 71 70 68 68 65 65 65 65 66 62 63 63 58 56 61 63 58 58 57 57 57 56 55
53 53 52 55 59 61 63 66 69 71 72 72 74 74 73 73 75 74 75 74 73 70 69 68 65 65 64 65 66 65 62 62 63 62 63 64 66 59 56 55 55 55 55
52 54 54 55 57 60 61 63 66 68 70 72 74 73 73 73 73 74 74 73 72 69 69 67 67 65 64 64 65 63 61 61 61 62 63 64 60 64 65 59 63 59 60
53 56 56 58 58 59 63 62 65 65 67 70 71 72 72 72 73 74 72 72 69 69 67 67 68 68 67 65 65 65 64 62 61 62 63 63 63 63 60 61 58 56 57
56 58 58 60 61 63 67 67 64 65 66 67 69 71 72 72 73 72 69 67 67 67 67 68 67 66 66 65 65 64 64 62 61 63 63 64 64 64 63 61 63 62 59
56 58 59 65 68 68 68 68 66 67 67 68 68 71 73 73 72 70 67 66 66 67 64 64 63 64 66 63 66 64 62 63 63 64 64 64 65 64 63 59 62 63 59
55 58 61 63 65 66 67 68 68 68 69 70 70 72 75 73 70 70 69 69 68 66 64 63 64 64 63 60 61 63 62 63 64 64 65 67 66 65 63 63 62 62 61
55 58 60 62 65 66 68 68 69 69 70 71 72 73 74 71 70 69 69 68 67 67 65 64 64 64 65 60 60 62 62 62 66 66 67 65 63 65 64 63 61 61 60
54 58 57 61 65 64 64 67 68 70 71 72 72 73 73 70 70 69 69 68 65 65 65 65 65 64 63 61 60 62 65 67 66 66 64 65 64 64 64 63 61 60 60
56 58 58 62 65 63 65 66 67 69 70 71 72 72 71 69 69 69 68 68 66 65 65 66 66 66 65 58 58 62 63 64 65 65 64 64 65 61 57 60 60 60 60
56 58 59 62 62 63 63 65 66 68 69 71 71 71 70 70 69 69 69 69 68 66 63 65 66 63 67 58 56 60 60 64 63 65 64 59 61 55 55 59 59 58 57
60 60 60 60 63 63 64 65 66 67 69 71 71 70 71 71 71 70 69 68 67 67 67 66 67 66 65 65 56 56 63 60 61 62 66 62 54 53 52 52 58 56 55
57 57 60 64 65 65 66 67 68 70 71 72 70 71 70 69 69 70 69 68 68 67 66 69 68 66 66 59 56 54 56 60 61 64 60 57 50 49 51 52 52 51 50
55 56 61 65 67 69 68 69 73 73 72 71 70 70 70 69 69 69 67 66 66 63 66 66 64 61 63 63 54 53 53 56 61 59 52 49 48 47 47 51 50 49 50
60 59 61 64 68 70 70 72 72 72 72 71 70 70 70 69 69 67 67 67 66 64 67 65 63 59 63 60 59 58 56 52 54 51 52 52 51 50 51 51 50 50 49
62 62 63 66 68 70 70 70 70 71 70 70 69 69 68 67 68 65 60 65 62 58 59 59 59 63 63 58 55 54 56 55 52 54 53 52 51 51 51 51 50 49 47
65 65 66 68 69 69 70 70 70 70 69 67 66 65 65 66 66 63 61 45 45 46 45 45 54 58 49 45 43 42 43 43 44 48 49 48 49 48 48 47 45 44 43

GFSMW_sfc_dewp_003.txt.gz
Dewpoint
57 59 61 62 63 65 68 71 73 76 73 71 73 71 69 70 69 68 74 75 74 74 74 71 73 71 71 72 68 65 65 60 62 59 58 60 61 61 60 55 54 55 56
54 59 61 62 62 66 69 73 74 77 76 72 74 72 72 68 66 67 72 73 75 74 73 75 70 71 69 70 68 67 62 59 62 59 57 56 60 61 61 57 53 54 53
51 57 60 62 63 66 70 73 77 78 77 77 74 75 74 71 71 68 70 72 73 73 74 73 73 73 69 58 67 65 64 58 63 66 60 54 59 59 63 61 55 56 53
52 55 59 62 62 65 69 74 77 78 78 78 74 76 70 67 64 66 66 70 74 73 73 74 72 72 65 69 65 63 65 65 60 59 61 63 63 56 56 62 57 55 53
51 54 58 61 62 64 66 71 77 79 79 78 77 72 73 66 65 63 74 73 76 72 70 71 72 70 63 67 67 65 67 65 61 58 57 63 57 60 54 50 54 54 54
50 55 57 60 62 63 65 69 77 79 79 78 77 77 77 73 66 67 68 67 66 69 71 69 72 70 65 66 65 67 67 66 65 62 62 58 54 54 53 51 54 52 54
51 53 58 59 62 65 67 69 76 79 79 77 77 77 77 77 75 73 69 69 63 64 72 72 74 68 68 66 67 68 67 65 64 65 60 66 64 60 56 54 53 56 56
51 50 56 60 64 65 69 70 74 78 79 77 78 79 79 72 70 73 69 66 64 64 71 71 71 70 67 67 67 63 62 66 63 65 68 60 60 61 57 62 63 59 56
50 51 53 58 62 64 68 70 74 76 77 74 79 79 78 77 72 76 75 69 73 65 66 69 71 70 67 67 68 62 66 64 64 65 68 63 58 56 55 56 64 60 55
50 51 52 55 60 61 65 69 72 75 75 75 76 76 76 78 77 77 76 74 73 71 71 69 69 69 69 69 70 66 67 66 61 58 66 67 59 58 56 57 56 55 53
48 51 51 53 57 59 62 66 69 73 74 75 75 76 75 75 76 75 75 75 74 74 72 72 70 68 67 67 68 67 65 67 67 67 64 66 68 60 56 55 56 54 55
46 50 51 52 54 59 59 61 64 66 71 74 76 76 76 75 75 76 76 76 75 74 72 72 70 67 67 68 67 65 63 63 62 62 66 65 60 69 69 59 67 64 63
44 49 50 52 54 56 60 58 62 62 65 72 72 74 74 75 75 76 76 76 76 74 70 71 70 67 67 67 67 67 65 63 62 62 65 64 66 68 63 66 62 60 63
50 49 51 55 56 59 62 62 61 60 62 66 68 73 75 75 74 76 76 75 75 73 70 70 68 67 66 66 65 65 65 65 64 64 65 65 66 68 68 67 68 66 64
47 53 54 61 63 63 65 65 63 65 64 69 69 73 76 75 75 76 77 75 73 71 69 68 67 66 63 62 66 65 65 66 65 63 63 65 67 66 66 66 63 67 63
36 52 57 59 65 65 67 67 67 67 68 72 71 74 77 76 76 76 75 73 72 70 68 66 65 65 60 60 63 65 63 65 65 66 65 68 66 64 64 64 64 64 63
40 47 56 60 63 64 68 68 70 69 71 74 74 76 78 76 75 74 74 72 71 70 68 65 66 65 65 60 61 63 63 64 65 67 66 65 61 64 63 64 63 63 62
41 44 52 59 65 62 63 67 68 73 74 75 75 76 77 75 73 72 72 72 71 70 68 66 67 66 65 60 60 63 65 64 64 65 65 66 66 66 65 64 64 64 64
40 46 55 59 68 66 69 70 70 72 73 73 75 76 76 74 72 71 71 71 71 71 68 66 68 67 67 58 58 62 65 65 66 65 65 67 65 63 60 62 61 63 64
43 51 57 61 65 68 66 69 68 70 72 73 74 76 75 74 71 71 71 72 72 70 65 65 67 65 68 57 57 61 64 62 59 69 68 61 61 58 57 62 61 61 61
56 60 61 66 68 68 66 69 69 69 70 71 72 74 73 72 71 72 72 71 71 69 67 66 67 69 67 65 56 56 63 58 61 60 65 60 56 55 54 53 59 59 57
58 59 63 65 66 68 69 70 71 72 74 73 73 72 72 70 70 72 70 70 70 69 68 69 68 66 68 60 55 55 55 60 62 60 59 67 55 54 53 53 53 51 51
60 59 60 65 66 70 70 72 75 75 74 74 73 72 72 72 72 71 70 69 69 65 65 65 63 63 65 70 56 55 54 56 62 65 56 54 52 50 49 50 52 51 50
59 60 62 65 68 70 69 72 73 74 74 72 71 71 71 70 71 69 68 66 65 64 63 63 65 65 68 66 66 61 60 56 59 54 55 54 53 51 52 52 51 51 51
60 61 64 66 68 70 72 71 72 73 71 71 70 72 70 70 69 66 64 68 68 65 63 62 65 65 59 60 57 58 60 58 55 57 56 54 54 52 54 54 54 53 50
63 64 65 67 69 70 70 71 72 72 71 70 70 69 68 69 68 63 59 47 48 47 47 45 53 57 48 45 44 43 45 45 47 54 52 50 49 49 48 51 50 48 46

GFSMW_sfc_dewp_006.txt.gz
Dewpoint
55 58 59 61 62 67 70 72 73 76 76 75 73 73 72 75 73 73 74 75 77 77 77 75 75 73 76 70 71 70 68 68 68 66 64 66 65 65 65 61 60 61 62
52 57 60 60 62 66 69 73 73 76 76 75 75 74 73 71 72 73 75 76 75 77 75 76 75 73 73 73 71 70 68 67 69 65 65 63 65 63 63 62 58 59 60
49 57 59 60 62 66 70 72 75 75 76 76 75 77 77 75 73 74 74 75 76 77 74 75 76 76 73 70 72 70 68 66 70 67 66 63 63 65 65 64 60 62 61
51 54 59 62 62 65 69 73 75 76 76 76 75 74 71 71 72 74 72 74 76 76 76 77 76 76 72 73 71 69 69 69 66 69 66 66 65 62 62 66 61 61 58
48 51 58 61 63 65 69 72 75 76 77 77 76 74 74 71 71 70 77 76 77 76 75 75 75 74 72 73 70 70 69 70 68 66 66 68 66 64 61 59 60 62 61
49 52 57 61 63 64 68 70 75 77 77 77 76 76 73 73 70 73 73 73 73 74 75 74 75 74 72 72 71 71 71 70 70 68 68 66 64 61 63 60 59 60 62
50 52 56 60 63 65 67 70 74 76 77 77 76 76 76 75 76 77 73 73 70 71 74 75 75 72 72 72 71 71 71 70 69 69 67 67 66 65 64 62 60 59 61
49 51 56 59 64 65 67 70 73 75 77 76 77 77 76 74 74 75 72 72 70 71 72 73 74 74 71 71 71 70 69 69 68 67 68 67 67 66 65 62 61 59 60
50 52 56 59 63 65 67 70 73 75 77 76 77 77 77 75 74 75 75 73 74 72 73 72 74 72 71 71 72 68 68 69 70 69 68 67 65 66 65 64 64 60 58
50 52 53 59 62 64 66 69 72 75 77 77 77 76 77 76 75 75 75 73 73 73 71 73 71 72 71 71 71 68 69 69 68 67 68 68 66 66 65 61 64 62 60
49 49 53 56 62 64 65 67 70 74 75 76 76 76 76 76 76 76 76 74 75 73 73 71 72 72 70 71 70 69 68 68 68 68 68 67 68 67 65 66 64 62 62
44 49 53 55 59 62 63 66 68 71 74 75 76 76 76 77 76 75 76 75 76 74 72 73 72 71 69 70 69 67 65 68 67 68 68 67 64 68 67 67 66 65 65
51 50 51 55 57 59 62 64 67 68 72 74 74 75 75 75 76 76 75 75 75 74 73 72 72 70 68 69 68 68 67 67 66 66 67 66 67 67 68 67 67 66 65
57 52 52 57 56 60 63 64 66 67 69 72 72 73 74 75 74 75 76 75 75 74 74 72 72 70 68 68 67 68 67 67 66 68 68 67 66 67 67 66 67 67 66
54 56 58 61 61 62 64 64 64 65 66 70 72 73 75 75 75 75 75 75 76 75 75 73 71 69 66 65 67 67 67 67 67 66 67 67 67 66 67 67 66 67 65
46 56 59 63 66 63 64 63 63 64 66 69 70 72 74 75 75 75 76 76 76 75 75 71 69 68 64 62 64 67 66 67 67 66 67 68 66 65 64 64 64 66 64
46 53 60 61 63 64 64 63 64 65 66 69 71 72 74 75 75 75 76 76 76 75 73 70 68 66 67 61 62 64 66 66 67 66 68 65 64 66 66 64 63 63 62
44 47 40 60 65 63 62 64 65 68 68 73 72 73 75 75 75 75 75 76 74 73 72 70 67 66 66 60 60 63 64 66 67 66 67 65 66 67 67 66 66 64 63
50 48 41 50 66 65 66 68 67 67 72 71 74 74 77 76 76 75 75 74 73 72 71 69 67 67 67 59 59 61 64 65 65 66 66 66 68 64 61 64 62 62 64
38 54 54 55 66 68 66 68 69 69 69 72 74 77 77 77 75 74 73 72 72 72 71 68 68 65 69 58 57 60 63 64 65 67 67 62 64 60 58 63 63 63 63
48 58 65 65 69 69 68 69 70 71 71 75 75 77 77 76 74 72 72 72 72 73 70 67 67 68 68 67 55 56 64 64 64 63 65 65 58 56 55 55 62 59 56
54 60 69 71 72 71 72 73 73 75 76 76 76 77 75 72 71 72 72 72 71 69 69 68 68 71 71 63 55 55 57 62 64 64 66 62 54 55 55 53 53 52 53
62 62 68 72 73 75 73 73 75 75 75 75 76 75 73 71 71 72 70 69 70 68 67 67 69 69 69 67 57 54 54 55 60 65 57 55 52 54 51 52 52 52 54
65 66 67 69 71 73 73 75 75 75 75 75 73 72 71 72 73 72 70 68 68 67 66 69 69 69 69 67 64 61 60 57 59 56 56 55 55 54 55 55 51 53 55
68 69 70 71 72 75 74 74 75 75 73 72 71 70 70 70 70 63 62 67 59 60 69 71 69 66 66 66 62 62 63 62 59 59 59 56 57 56 55 55 56 55 55
66 67 70 71 71 73 73 74 75 74 72 70 70 70 70 69 66 61 57 46 47 45 46 47 57 58 51 49 47 45 45 47 51 59 61 60 57 55 55 55 54 55 55

GFSMW_sfc_dewp_009.txt.gz
Dewpoint
55 59 60 61 64 68 68 68 69 72 72 72 72 72 72 72 71 71 73 72 73 74 72 72 72 71 71 69 68 65 62 63 65 59 61 63 61 61 60 56 55 58 62
53 58 59 60 62 66 68 69 68 73 72 73 72 71 71 71 71 71 72 72 74 73 72 72 72 71 71 68 65 64 62 64 63 58 61 60 62 61 59 55 55 57 59
53 55 57 59 61 65 69 69 69 72 73 73 72 74 73 72 71 71 73 73 73 74 72 73 72 70 68 68 65 64 63 60 65 61 60 59 58 61 62 57 56 55 56
52 55 57 58 60 65 67 70 70 72 72 73 72 71 70 68 70 71 70 72 74 74 72 72 73 71 68 67 65 65 63 64 61 65 62 61 59 58 58 61 57 56 54
50 54 57 58 60 63 67 71 71 71 72 72 72 71 70 69 70 71 69 73 74 73 73 73 73 69 65 67 67 64 62 65 63 63 63 63 61 58 57 57 57 59 57
48 54 57 59 59 64 67 70 72 72 73 72 73 72 71 70 68 69 72 72 72 72 73 72 71 69 68 66 65 65 64 65 64 63 63 61 60 58 59 55 56 56 58
47 49 56 59 60 63 66 70 72 72 73 73 72 73 71 70 70 70 71 71 70 72 72 72 70 68 68 67 66 65 65 64 63 61 62 63 60 60 58 56 55 54 57
46 49 56 58 60 62 66 69 72 72 73 74 74 72 73 69 69 71 71 70 70 70 71 71 70 69 67 68 68 66 66 65 64 63 62 62 63 61 59 58 56 55 57
47 49 53 57 60 62 67 68 72 72 73 74 74 73 73 72 71 72 73 71 68 70 70 72 71 69 67 68 67 66 64 65 64 61 62 62 61 62 62 61 58 55 53
47 49 52 57 60 62 65 68 71 73 74 73 75 74 73 71 71 72 72 71 69 70 69 71 72 70 67 67 67 64 66 65 65 64 63 62 62 61 62 60 59 58 56
46 49 52 56 60 62 65 67 70 72 74 74 74 74 74 73 72 73 72 71 71 70 70 70 72 70 68 68 67 64 64 65 62 63 62 63 63 62 60 62 60 59 59
46 49 51 55 60 62 63 66 71 72 73 74 74 74 74 74 73 72 72 73 71 70 70 70 69 70 68 68 67 65 64 63 64 63 62 61 61 63 62 63 63 62 61
50 51 51 56 60 61 62 65 68 72 73 74 74 74 74 74 74 72 74 74 70 71 70 68 69 69 68 67 67 65 64 65 64 65 64 63 62 62 63 64 64 63 63
51 51 52 56 58 61 62 63 67 70 73 74 74 73 73 74 74 74 72 74 73 72 69 69 69 69 68 67 67 66 65 65 65 64 64 63 63 63 64 63 63 63 63
52 52 53 54 58 60 62 63 65 67 71 72 73 72 73 73 74 74 74 72 73 73 72 70 70 69 67 66 66 66 65 65 64 64 65 64 65 66 64 65 64 64 63
54 54 55 54 56 58 61 62 64 66 68 71 72 72 72 73 73 74 74 74 72 73 73 71 70 69 66 64 65 66 65 65 65 64 65 62 66 65 64 64 64 65 63
49 52 54 61 56 58 60 62 64 65 66 69 71 71 71 72 72 73 73 74 73 74 74 71 70 68 67 62 63 65 65 65 64 65 66 64 65 65 64 63 63 63 63
44 51 54 58 64 59 60 61 63 65 66 67 69 70 71 71 73 73 73 74 74 74 72 70 69 68 67 60 61 63 65 65 64 66 66 64 62 64 63 63 62 63 62
35 43 50 57 61 62 61 60 61 63 64 65 67 69 70 72 73 73 73 74 74 72 71 70 67 66 66 60 58 61 63 64 64 65 65 63 63 63 61 62 61 60 60
39 38 49 50 62 62 61 61 61 62 62 63 66 69 70 72 74 73 74 73 72 71 71 69 67 64 66 59 58 59 62 61 62 63 63 61 62 61 59 60 59 58 60
51 43 49 54 62 64 62 61 61 61 64 63 71 73 74 74 74 73 71 71 70 71 70 69 66 65 65 62 56 56 61 60 62 62 62 63 59 57 57 58 59 58 52
52 67 61 64 68 67 66 65 62 65 72 73 76 76 74 73 72 70 70 70 70 69 67 66 65 66 67 60 55 55 57 61 62 61 61 57 55 55 57 54 52 51 52
66 68 70 72 73 71 69 71 74 74 74 76 75 72 72 71 70 70 69 69 67 66 66 65 65 66 66 64 56 54 54 56 59 61 59 54 54 54 53 53 52 52 50
67 69 70 70 71 73 73 73 73 74 75 74 72 70 70 70 70 69 68 68 68 67 66 65 65 65 65 62 59 56 56 57 57 56 56 55 53 52 53 53 52 50 51
69 70 70 72 72 72 73 73 73 74 72 71 70 70 70 70 61 55 57 62 54 61 66 66 65 63 64 64 60 58 60 59 58 56 54 53 53 52 52 53 53 52 52
64 69 70 71 72 73 73 73 72 71 70 69 69 69 69 62 59 57 53 45 46 45 45 51 59 54 51 53 51 50 51 51 52 57 56 54 55 55 55 54 53 55 55

GFSMW_sfc_dewp_012.txt.gz
Dewpoint
59 60 60 62 63 67 69 69 69 69 70 71 71 71 70 71 71 71 70 71 71 72 71 71 71 71 70 68 67 65 61 61 64 58 61 62 61 59 58 55 60 62 66
57 59 59 62 63 67 68 69 69 69 69 70 70 71 71 71 71 71 71 71 71 72 72 71 71 71 70 68 65 63 61 62 62 58 60 58 61 60 55 55 58 58 62
56 58 59 60 63 66 67 67 70 70 70 70 71 71 71 71 71 71 71 72 72 72 72 72 71 70 69 67 64 63 62 59 63 61 60 58 57 60 60 55 55 55 58
55 57 59 59 62 65 67 67 69 71 71 72 71 70 69 69 69 70 71 72 72 72 72 72 71 69 68 66 64 64 62 61 59 64 62 60 60 58 58 60 56 55 53
53 54 58 59 60 63 66 67 67 72 72 72 71 70 69 69 69 70 70 71 73 73 72 71 71 68 67 66 64 64 62 64 60 62 62 61 61 56 57 56 56 58 55
52 54 57 58 60 62 65 67 67 68 72 72 71 71 69 69 68 69 69 71 73 72 72 72 72 68 65 66 65 63 61 65 64 62 62 60 57 57 57 55 55 55 56
51 53 55 57 58 60 64 67 68 67 69 72 71 71 70 69 69 68 70 71 71 71 72 72 71 68 66 65 64 64 63 63 63 60 61 62 58 58 57 55 54 53 55
49 52 54 57 57 60 64 67 69 68 69 70 71 71 71 70 70 69 71 70 70 70 71 71 70 67 66 65 65 64 64 64 62 63 62 61 62 59 57 55 54 53 55
46 49 54 56 58 60 64 67 69 69 70 71 70 71 72 71 70 71 71 71 70 70 71 71 69 67 66 66 66 64 63 65 63 62 61 62 60 62 61 60 56 52 51
45 47 50 55 58 59 64 67 69 69 71 72 71 71 71 72 70 71 71 71 70 70 70 70 69 67 65 67 66 64 63 64 64 63 61 62 61 60 62 59 59 56 53
47 46 48 55 58 60 64 67 69 69 70 72 71 72 71 71 71 71 71 72 69 69 70 70 70 68 66 66 65 64 64 62 63 64 62 62 61 60 61 61 60 59 58
47 48 49 53 57 60 64 66 69 69 70 72 72 72 72 72 71 71 71 71 70 69 69 69 70 69 67 65 66 64 63 64 62 62 62 61 62 63 61 61 62 61 60
46 47 50 53 56 60 62 66 68 70 71 71 72 73 72 73 72 70 71 71 71 69 69 69 70 69 68 66 65 65 64 62 64 63 62 61 61 60 61 62 61 62 62
44 45 50 53 57 60 62 65 67 70 71 72 72 72 73 73 73 72 71 71 72 70 69 69 69 70 69 67 67 66 64 64 64 64 63 63 63 63 62 63 63 63 62
48 46 50 53 58 61 62 64 67 69 71 71 72 72 73 73 74 73 72 71 73 71 70 68 69 68 69 68 67 66 65 63 64 64 64 64 65 65 63 64 62 61 62
48 50 50 54 58 60 62 63 66 70 71 71 72 72 73 73 73 74 73 72 73 73 70 69 68 69 69 65 65 66 66 65 63 63 63 64 66 65 64 64 63 63 62
50 52 51 55 56 60 61 62 65 68 71 71 72 73 73 73 73 73 74 73 72 72 72 70 70 69 69 64 64 65 65 65 64 63 64 64 65 65 64 63 63 62 62
44 51 53 53 57 59 61 62 64 66 69 70 71 73 73 72 73 73 73 74 73 73 72 71 70 70 69 63 62 64 66 65 64 64 64 65 65 64 63 63 63 62 62
40 43 52 57 57 58 61 62 63 65 66 68 70 71 72 72 73 72 73 73 74 73 73 72 70 70 69 60 60 63 66 65 64 64 65 66 65 61 60 63 60 60 61
37 40 42 55 61 57 59 61 62 64 65 66 68 71 71 71 71 72 73 74 74 74 72 71 70 66 67 57 57 60 62 63 63 64 64 61 62 59 58 62 59 59 59
45 41 40 44 56 62 59 59 61 62 64 65 66 69 71 71 72 73 74 74 73 72 71 69 67 66 66 64 57 56 61 61 62 61 63 63 58 56 55 57 59 59 57
51 61 46 47 50 59 60 59 60 62 63 65 65 67 70 71 74 73 73 73 71 71 69 68 66 66 66 60 55 54 57 59 61 62 62 60 54 52 55 57 56 52 52
66 68 67 63 69 63 61 60 60 61 63 64 67 69 71 73 73 72 71 70 70 69 67 66 64 64 65 62 55 53 54 58 62 63 59 52 50 52 54 53 52 52 50
62 62 64 69 69 70 67 62 63 64 66 71 73 73 72 71 71 71 70 69 68 67 65 65 65 65 64 62 59 56 56 56 58 58 55 55 55 53 53 52 52 51 50
60 60 58 58 57 70 73 73 72 73 73 72 72 71 70 70 65 58 64 67 64 65 65 65 65 64 64 62 58 56 58 59 56 54 53 52 52 51 51 51 51 50 50
59 57 56 56 57 58 65 73 74 73 71 70 70 69 64 62 60 59 55 47 46 47 52 55 61 56 56 50 48 47 47 47 50 54 52 51 51 51 51 51 51 52 53

GFSMW_sfc_dewp_015.txt.gz
Dewpoint
62 63 63 63 64 66 67 68 68 69 70 70 70 70 70 69 70 71 71 72 72 73 71 71 70 70 69 68 66 65 61 60 63 57 60 62 60 58 56 59 63 66 67
62 62 63 63 62 65 67 68 68 69 70 70 70 70 70 70 70 71 70 71 72 72 71 70 70 70 69 67 67 62 61 61 62 58 59 58 60 59 54 57 61 62 65
61 62 61 61 62 65 67 69 69 69 69 69 70 70 70 70 70 70 70 71 71 71 71 71 70 70 69 68 65 63 60 59 62 60 59 57 56 59 60 54 56 57 60
58 60 61 60 61 64 67 69 69 69 69 69 69 69 68 67 69 70 70 71 71 71 72 71 71 70 69 67 65 63 61 60 59 63 61 60 60 57 55 58 56 55 54
57 58 59 60 61 63 66 68 69 69 69 69 69 68 67 68 69 70 70 70 72 72 72 71 70 69 68 67 65 63 63 62 59 61 60 60 60 57 58 53 54 56 56
56 57 58 59 61 63 66 67 68 69 69 69 69 69 68 68 68 68 69 69 71 72 72 71 70 69 67 66 64 64 62 64 62 62 62 60 56 56 56 55 55 54 54
53 55 56 58 59 62 65 67 67 69 70 70 70 69 69 69 68 68 69 69 70 70 71 71 71 69 66 66 64 63 61 64 63 61 61 61 58 58 56 54 53 53 54
51 53 54 56 59 60 64 66 66 67 70 71 70 70 69 69 69 68 68 69 70 71 71 71 71 70 65 65 64 63 63 63 63 60 60 62 60 58 57 53 54 52 54
50 51 53 54 57 60 62 65 66 66 68 70 70 70 70 70 69 69 69 69 70 71 71 71 71 69 66 65 64 63 63 64 62 62 62 61 60 61 59 58 54 51 50
47 50 52 53 56 58 60 64 66 66 66 69 70 70 70 70 70 70 69 69 70 70 70 71 70 69 66 65 64 63 63 64 63 62 61 60 60 60 60 60 60 55 53
47 47 50 52 54 57 59 63 66 66 66 67 68 69 70 70 70 69 70 70 70 70 70 70 70 69 66 66 65 64 63 63 63 63 61 60 61 60 60 60 59 58 55
48 47 47 50 54 57 58 63 65 66 66 67 69 69 69 70 71 70 70 70 70 70 70 70 70 69 67 65 65 64 64 62 61 63 62 62 61 61 61 60 60 59 59
47 47 46 48 53 57 58 62 65 66 67 68 69 69 70 70 70 71 70 71 70 69 69 69 70 69 68 65 65 64 64 63 62 61 62 62 61 60 61 61 61 60 61
47 47 49 49 54 57 59 62 65 66 67 68 69 69 70 71 70 70 70 70 71 70 69 69 69 70 69 67 66 66 65 63 64 64 62 61 61 61 60 60 61 61 60
45 46 48 50 54 56 59 63 64 67 67 68 69 69 70 71 71 71 70 70 71 70 69 69 69 70 69 69 67 67 65 65 64 64 64 63 63 63 62 62 61 61 60
41 43 45 47 52 55 59 61 65 66 68 68 69 70 71 72 72 72 71 70 70 71 70 69 68 69 69 66 65 67 67 66 65 64 64 63 65 65 63 63 63 62 60
38 43 47 47 52 56 59 61 64 66 69 69 69 70 70 72 72 72 72 71 70 71 70 69 69 69 69 64 63 65 67 66 65 65 65 63 64 65 65 63 63 62 62
40 47 48 48 52 57 59 60 63 66 68 69 69 70 71 71 72 73 72 72 71 72 70 69 68 69 69 61 62 65 67 66 66 65 65 63 63 64 64 63 62 61 61
38 46 52 52 54 57 60 61 62 65 68 69 69 70 71 72 72 72 73 73 72 72 72 71 70 69 69 60 60 62 67 66 66 66 64 63 63 62 61 62 61 60 61
36 44 53 55 55 57 59 61 62 64 67 69 69 70 72 72 72 72 72 74 74 73 72 72 71 68 70 59 58 63 67 66 65 62 63 62 64 58 58 63 60 59 60
47 44 41 53 56 57 60 61 61 62 65 68 69 70 71 72 72 73 73 74 74 73 73 72 72 71 68 59 57 60 66 64 63 62 62 63 58 55 54 57 61 60 58
65 68 67 63 58 54 58 60 61 63 64 65 67 69 70 72 72 73 73 74 73 72 72 72 68 68 65 60 56 57 59 60 62 61 63 63 56 52 52 54 55 54 54
58 58 58 61 61 68 64 59 59 62 63 64 65 66 69 72 72 73 73 73 73 72 71 68 67 66 66 65 55 54 54 56 60 63 60 53 50 50 52 55 54 52 51
56 55 53 53 53 58 62 64 67 62 62 63 64 66 69 70 72 73 73 73 72 71 69 67 66 65 65 63 58 56 58 57 61 57 55 55 54 54 54 53 52 51 50
57 56 55 55 54 57 58 58 57 60 62 64 66 68 70 72 70 62 69 72 68 68 68 67 66 65 64 63 56 56 58 59 57 55 54 54 53 52 51 50 51 50 50
58 58 58 56 55 58 63 62 60 60 66 69 71 71 71 63 61 60 57 50 54 55 54 55 62 62 56 49 49 48 48 48 50 54 53 53 52 52 51 50 50 50 51

GFSMW_sfc_dewp_021.txt.gz
Dewpoint
62 64 65 66 67 69 70 71 71 73 72 70 69 69 68 69 70 71 73 74 74 75 75 72 74 74 72 72 72 70 68 64 67 63 63 63 62 61 64 65 63 64 64
61 63 64 65 66 68 70 72 72 74 73 71 71 70 70 69 71 71 73 74 74 75 74 74 74 74 71 73 72 71 66 64 66 62 62 58 60 60 59 64 63 64 60
61 63 64 65 66 67 70 72 74 74 74 73 72 72 72 73 72 71 72 73 74 75 75 75 74 74 73 71 72 71 69 63 65 65 61 57 55 60 61 62 63 65 61
61 62 63 65 65 68 69 72 73 74 73 75 73 74 69 69 69 71 71 72 74 74 75 75 75 75 72 73 72 71 69 67 62 65 65 66 65 57 57 59 60 61 59
61 62 63 64 65 67 67 70 73 74 74 75 75 72 72 69 69 70 74 76 75 74 74 75 75 75 73 74 74 72 70 66 63 62 63 65 64 66 60 57 56 58 58
60 62 63 65 65 66 66 68 72 74 74 74 75 75 74 73 70 71 70 70 71 71 74 74 75 75 74 74 73 73 71 69 66 65 64 60 59 59 60 59 60 56 58
60 61 63 64 66 67 68 68 71 72 74 74 74 74 74 74 74 73 70 71 70 70 73 75 75 74 75 74 74 73 71 70 67 68 64 64 62 62 60 59 60 58 59
59 60 63 65 67 67 68 68 70 72 73 73 74 74 75 72 72 73 70 70 69 70 73 74 75 75 74 74 73 71 69 69 68 68 67 64 64 63 61 60 58 57 58
57 59 62 64 66 67 68 69 69 71 72 72 73 74 74 74 72 74 74 70 74 70 73 74 74 75 74 74 74 70 70 69 69 68 68 65 64 63 61 60 60 56 53
52 56 60 62 64 65 67 68 69 70 71 72 72 72 73 74 74 74 74 74 73 73 73 73 74 74 74 74 74 71 71 70 67 65 68 67 64 64 63 61 60 59 57
48 51 57 60 63 63 65 66 68 70 71 72 72 72 72 73 73 73 74 74 74 74 74 74 74 74 74 74 74 73 71 69 69 68 68 68 68 63 63 63 63 62 60
51 51 52 56 59 63 63 64 66 67 69 71 72 72 73 73 73 73 74 74 74 74 75 75 74 74 74 74 73 72 71 70 69 68 67 67 65 67 67 63 66 63 64
52 53 51 54 58 60 63 63 65 65 67 70 71 72 72 73 73 73 74 74 74 75 73 74 75 74 73 74 73 73 72 70 70 69 68 67 67 66 63 64 63 62 64
50 53 55 58 58 60 63 64 64 65 66 67 69 71 72 72 72 74 74 74 75 74 74 75 74 74 73 73 72 72 72 71 70 70 68 67 66 67 67 66 66 65 64
43 48 52 60 62 62 63 64 64 66 67 69 69 70 72 73 73 74 74 74 74 74 74 75 74 74 73 71 73 72 72 72 70 70 69 68 67 66 66 65 66 67 64
41 45 51 57 60 62 63 64 65 65 68 69 69 70 72 73 74 74 74 74 74 74 74 74 74 74 71 67 67 71 72 72 72 71 70 69 67 66 64 63 64 66 66
43 46 48 54 59 60 63 63 65 67 68 68 70 71 72 73 73 74 74 74 74 74 74 74 74 74 74 64 65 67 71 72 72 71 70 69 67 66 67 63 62 63 63
42 47 41 50 61 58 56 63 64 68 69 70 70 71 72 72 73 73 73 74 74 74 74 74 74 74 74 63 63 65 72 72 72 72 71 70 69 69 67 67 66 65 66
45 45 43 46 60 61 63 65 65 68 69 69 70 71 72 72 73 73 73 73 74 74 74 74 74 74 74 62 61 64 70 72 72 72 71 70 70 65 62 67 67 67 67
40 44 47 51 56 59 58 64 64 67 68 69 70 72 73 73 73 73 74 74 74 73 72 73 74 71 74 62 60 64 69 71 70 71 71 63 69 59 59 66 67 66 66
49 48 56 60 62 63 61 65 65 67 67 69 71 72 73 74 74 74 74 74 74 73 74 73 74 74 72 72 58 59 71 70 69 69 69 71 59 56 56 59 68 65 66
62 61 64 66 67 65 66 66 68 69 70 71 72 74 74 72 72 75 75 75 74 74 73 73 73 72 74 65 57 57 63 66 69 69 69 67 56 54 54 58 59 56 60
63 66 66 66 67 68 69 68 70 69 70 71 73 73 74 74 74 74 74 73 74 72 72 71 71 71 72 73 56 56 59 61 70 69 65 59 54 54 54 56 55 56 62
57 57 59 61 63 65 66 67 67 71 71 71 72 73 73 74 75 73 73 73 72 72 71 72 71 71 72 69 63 63 63 59 63 62 61 58 59 58 60 58 58 62 62
59 61 63 63 64 65 65 64 65 65 65 68 70 70 70 72 73 74 73 73 74 71 71 72 72 72 67 64 60 62 64 63 58 60 61 61 62 61 61 61 61 61 60
64 65 66 66 65 64 64 65 66 65 65 65 63 63 65 67 69 71 74 54 52 56 56 57 67 68 59 51 51 52 52 51 53 61 61 61 62 61 60 59 59 59 58

GFSMW_sfc_dewp_024.txt.gz
Dewpoint
60 61 63 64 65 67 69 71 71 73 72 70 69 68 65 66 66 66 70 73 74 75 76 72 72 71 71 73 72 70 69 63 63 59 59 60 61 60 59 58 56 58 60
59 61 63 63 63 67 69 71 72 74 74 71 71 68 67 65 66 67 71 73 74 76 75 78 74 72 73 74 72 73 66 65 61 60 60 56 57 57 58 60 58 58 55
58 60 62 62 63 66 69 71 73 73 74 73 71 70 69 68 67 68 69 72 74 75 76 75 75 76 72 76 74 72 70 63 62 65 60 55 54 56 58 61 59 62 57
59 60 61 62 62 65 68 71 73 74 74 75 72 74 68 67 67 69 68 70 74 74 74 75 75 76 71 73 75 71 71 71 62 61 61 65 64 56 55 58 59 59 58
58 60 61 61 62 65 66 69 73 76 76 75 75 71 72 68 68 67 74 76 75 75 73 75 75 75 75 74 75 73 74 69 65 58 61 63 60 63 57 57 57 59 58
57 60 61 61 62 64 66 68 74 77 76 76 75 76 76 73 69 71 68 69 70 71 74 74 74 75 75 74 74 75 74 72 69 60 62 59 57 57 57 55 59 56 57
57 58 61 62 62 64 66 68 72 75 75 74 75 75 75 76 75 73 70 72 67 67 73 75 75 74 76 75 75 76 74 73 70 70 59 60 60 59 58 55 56 55 57
56 57 60 62 64 64 67 69 71 74 74 74 76 77 77 72 72 74 70 69 67 68 72 73 74 75 75 75 76 73 72 73 71 70 67 59 61 61 60 57 56 55 55
55 57 58 61 64 65 68 70 72 74 74 72 76 77 77 76 72 76 75 71 74 69 72 73 74 74 74 75 76 72 74 72 72 70 69 64 59 61 60 59 57 55 53
53 55 58 59 62 64 66 69 71 73 74 74 74 74 75 76 76 76 76 76 74 74 72 73 74 74 74 75 76 73 74 74 70 67 69 68 60 62 61 59 58 56 55
47 51 54 58 59 62 65 67 69 71 72 73 74 74 74 74 75 75 76 77 75 76 75 75 74 73 74 75 76 75 73 74 73 70 69 69 68 60 59 60 59 58 57
43 45 48 53 57 60 63 64 66 67 70 72 75 75 75 75 74 76 76 77 77 76 76 75 75 74 73 75 75 75 72 73 72 71 70 69 65 68 68 61 67 63 63
46 48 47 49 54 58 62 62 64 65 66 71 71 72 73 74 75 76 76 77 77 77 74 76 77 75 74 74 75 75 74 73 73 72 71 70 68 68 63 64 62 61 62
44 45 48 49 53 58 64 66 62 63 64 66 68 72 74 74 74 76 76 76 77 77 77 77 77 76 74 74 74 74 74 74 73 73 72 71 69 68 68 65 66 64 61
39 43 49 54 59 60 64 67 65 65 65 68 67 72 74 76 76 76 77 77 77 77 77 77 77 76 74 71 75 75 74 75 74 74 73 72 70 67 67 63 68 69 64
34 34 40 52 55 59 62 62 67 65 67 70 70 72 75 76 76 77 77 77 77 77 77 76 76 76 72 66 66 72 74 75 75 74 74 73 69 68 64 64 65 68 68
37 39 40 44 50 51 59 62 65 66 69 71 72 74 75 76 76 76 77 77 77 77 77 77 77 77 76 64 64 67 73 74 75 76 74 72 69 69 69 65 63 64 63
36 40 35 36 42 46 44 59 62 70 70 72 73 74 74 75 76 77 76 77 77 76 76 77 77 77 76 65 62 65 74 75 75 74 74 74 73 71 70 70 66 67 66
38 38 37 39 50 48 51 56 62 66 68 72 73 74 74 74 75 76 76 77 76 76 76 76 77 77 77 63 61 65 72 72 75 74 74 74 74 68 63 70 69 69 69
38 40 40 43 45 52 52 57 60 64 68 71 71 74 75 75 75 76 77 77 76 76 73 75 76 73 77 65 60 65 69 71 70 75 76 65 71 62 60 70 70 69 68
48 49 49 49 53 57 57 59 62 63 67 69 69 72 75 76 76 77 77 76 76 74 76 75 76 77 75 75 58 60 72 68 69 67 69 72 62 56 57 62 70 69 68
54 58 54 54 60 64 64 63 69 67 69 70 70 73 75 72 71 77 77 76 76 76 76 76 74 74 76 67 59 58 63 67 69 69 68 71 58 55 55 60 61 58 61
61 62 58 63 66 68 68 68 70 70 70 71 72 72 73 73 75 76 76 73 76 72 72 71 71 71 72 74 61 57 59 61 70 68 67 61 55 53 56 58 58 59 66
62 63 65 64 67 71 71 72 72 72 72 72 73 73 73 73 74 71 72 71 70 71 70 70 71 70 71 71 72 65 62 62 67 62 64 60 59 59 61 59 61 68 66
62 63 64 65 66 67 67 66 67 68 71 72 71 72 71 73 72 74 71 70 73 68 70 70 70 71 70 71 67 65 66 67 64 61 62 62 63 63 63 64 64 67 67
66 66 67 67 65 66 67 69 69 69 67 66 62 62 62 64 67 68 71 55 57 53 51 51 62 70 65 54 52 52 53 52 52 63 63 64 65 64 64 64 64 65 64

GFSMW_sfc_dewp_027.txt.gz
Dewpoint
56 58 60 61 62 65 68 71 72 76 73 70 69 68 66 66 65 65 69 71 71 74 75 72 73 71 74 71 71 69 68 60 62 58 58 59 59 59 57 56 55 57 58
56 57 59 60 61 64 68 73 74 76 75 71 72 69 69 64 65 65 71 71 72 74 76 76 72 72 72 72 72 71 70 60 60 62 58 59 57 55 55 56 56 57 55
56 58 59 60 61 64 69 73 75 76 76 76 73 73 70 69 65 66 66 70 73 73 75 74 73 73 74 75 73 71 71 67 59 66 61 56 62 57 59 60 58 60 56
57 59 59 60 60 64 67 73 75 76 76 77 73 74 67 65 64 66 66 69 74 73 73 75 73 77 71 77 75 71 72 71 62 59 60 66 66 64 62 61 58 60 58
55 57 59 60 60 62 64 70 76 77 77 77 76 71 71 65 65 65 73 74 77 74 72 75 76 76 73 76 74 74 74 69 67 59 59 63 57 62 62 58 64 60 57
53 57 59 60 60 61 63 68 75 77 77 77 77 77 74 71 66 68 67 67 67 72 76 74 77 77 76 75 74 75 74 73 70 63 62 60 59 58 58 56 61 58 62
52 56 59 59 60 62 65 68 74 77 77 77 76 76 76 76 77 75 68 69 66 66 74 77 78 74 77 75 77 78 76 74 71 72 61 60 59 59 58 56 56 55 56
50 54 58 60 61 63 66 68 73 76 77 77 77 77 78 72 71 73 68 67 65 66 74 77 76 76 76 75 77 73 73 75 72 72 71 61 60 61 60 58 57 56 55
48 54 57 60 62 62 67 70 72 75 77 76 77 78 77 77 73 75 75 71 74 67 74 75 76 76 76 77 78 72 75 75 74 73 72 66 59 60 60 59 58 57 55
47 52 55 58 62 61 64 69 71 74 76 75 76 76 77 78 77 77 77 75 74 76 75 75 75 76 76 77 78 74 76 76 72 70 74 72 61 61 61 59 58 57 55
45 51 54 56 60 61 62 65 69 73 75 75 76 76 76 76 77 76 77 77 77 78 76 77 76 76 76 77 78 77 75 76 76 74 74 73 73 60 59 59 59 58 57
43 50 52 54 56 60 62 63 66 67 72 74 76 76 76 76 76 77 76 78 78 78 78 77 77 77 76 77 77 76 73 75 75 74 74 71 67 72 72 61 71 64 66
41 45 49 52 54 56 62 62 65 65 66 72 72 75 75 75 75 77 77 78 78 78 77 77 78 77 76 76 77 77 76 75 75 75 74 73 72 72 64 66 64 61 64
43 44 44 46 51 57 63 65 63 64 65 67 69 73 75 75 75 76 78 77 78 78 78 77 78 78 77 76 76 76 77 76 75 75 75 74 73 72 72 70 70 69 64
42 43 45 50 54 60 65 67 63 66 66 69 69 71 75 76 77 77 77 78 78 78 78 78 77 78 77 73 76 75 76 77 76 75 76 75 73 70 70 67 69 69 66
35 38 42 47 53 55 62 65 68 66 67 70 70 72 75 77 77 78 78 79 78 78 78 78 77 77 75 68 67 73 75 76 77 76 76 76 71 69 66 65 66 68 70
33 36 37 38 47 52 56 59 67 68 69 70 72 73 75 76 77 78 78 78 78 78 78 78 78 77 77 66 64 67 74 75 76 77 76 75 70 71 71 65 64 64 64
36 37 32 36 42 39 38 56 57 70 71 72 72 74 74 76 77 78 78 78 78 78 78 78 78 78 77 67 62 65 73 75 76 76 76 76 74 74 73 72 69 68 68
37 37 34 36 48 42 44 48 57 65 71 71 73 73 75 75 77 77 78 78 78 78 77 78 78 78 78 65 62 64 72 73 75 76 76 76 76 69 65 73 72 70 69
42 42 38 39 40 47 44 46 49 60 69 71 73 75 76 76 77 77 78 78 78 77 76 77 78 74 78 67 61 63 71 72 72 75 76 66 73 63 61 72 73 71 70
56 53 54 54 52 52 50 59 58 60 66 69 71 75 76 77 77 78 78 78 78 77 77 77 77 78 77 77 61 59 74 70 71 71 72 73 63 59 58 64 73 71 70
56 51 54 57 57 56 59 66 68 69 72 72 73 75 77 74 73 78 78 79 78 78 77 77 76 75 77 69 64 58 62 69 71 71 70 71 59 56 57 61 63 59 65
60 59 59 60 61 67 68 68 74 72 73 75 76 76 77 76 77 77 78 75 77 73 73 72 72 73 73 76 63 57 58 61 70 71 67 62 56 56 57 59 59 60 69
62 61 63 63 67 71 70 71 73 72 71 73 75 75 75 75 76 72 73 72 71 71 71 70 71 69 71 72 74 70 64 60 65 67 69 62 62 63 66 62 62 69 71
62 64 66 66 68 69 69 69 70 73 72 73 73 73 72 73 74 75 70 70 73 68 69 70 69 69 69 69 66 67 72 70 66 68 70 67 66 66 64 66 66 68 68
68 68 68 67 67 68 69 70 70 70 69 71 70 68 68 69 71 70 72 63 62 58 54 50 60 70 62 55 52 51 55 55 55 68 67 66 65 64 64 64 65 67 66

GFSMW_sfc_dewp_030.txt.gz
Dewpoint
57 60 60 60 62 66 69 70 71 75 73 72 71 71 69 71 71 73 75 76 76 77 79 78 73 76 75 75 74 73 72 68 67 66 66 66 64 63 64 61 61 63 64
55 59 60 60 61 66 70 71 72 75 74 73 73 72 72 71 71 72 75 75 75 77 77 77 76 76 75 76 76 75 73 68 67 68 64 62 64 62 61 64 60 63 62
55 58 60 60 61 66 70 72 73 75 74 75 74 75 75 75 70 71 73 73 75 76 77 77 77 76 76 75 76 75 74 71 67 70 69 62 61 64 64 63 64 63 64
56 58 59 60 61 65 69 73 74 75 75 76 74 74 70 68 70 70 71 72 74 76 76 77 77 78 77 75 75 76 75 74 68 67 66 70 69 65 61 65 65 65 61
55 57 58 61 62 64 68 72 75 75 76 75 76 73 71 70 69 70 74 74 75 75 75 76 77 78 77 76 76 77 76 76 71 68 67 68 68 68 65 63 65 65 66
55 59 59 61 62 64 67 71 75 75 76 76 75 76 73 72 69 70 70 72 73 74 76 77 77 78 76 77 77 77 77 76 75 72 71 67 66 65 65 63 63 63 65
54 59 61 61 62 64 67 69 74 74 75 75 74 75 75 73 75 74 70 71 70 72 74 77 77 76 77 77 76 77 77 76 75 74 71 70 70 69 68 65 64 63 64
50 56 61 61 62 63 66 68 73 74 75 75 75 74 77 73 71 75 70 71 70 70 75 75 76 76 76 76 78 76 75 76 75 75 73 71 70 69 68 67 66 63 62
46 55 59 62 63 63 66 68 72 74 75 74 75 75 75 76 71 73 75 73 74 71 75 75 75 75 76 76 77 75 76 76 75 75 75 72 69 70 69 68 67 65 62
46 53 58 61 62 62 64 67 71 73 75 75 75 75 74 75 75 73 75 73 75 74 77 75 75 76 76 77 77 76 76 75 75 73 73 73 68 68 70 68 68 67 64
47 51 57 60 62 62 63 65 68 72 74 75 75 75 75 75 75 74 74 76 74 78 74 77 76 76 75 76 77 75 75 75 75 75 74 72 71 69 69 68 68 67 66
49 50 54 59 61 62 62 64 67 69 73 75 75 75 75 76 75 74 74 75 77 75 77 76 76 76 75 76 75 75 73 75 75 74 74 72 70 72 72 71 68 67 68
47 50 53 57 60 62 63 63 66 66 71 74 75 75 75 75 75 76 74 75 75 77 75 77 76 75 75 75 76 75 75 73 75 75 74 73 72 71 68 70 70 68 69
50 51 53 57 59 62 65 65 65 66 68 71 73 74 75 75 75 75 76 75 76 75 76 76 76 76 75 75 75 75 75 75 74 75 75 74 72 71 71 69 68 70 66
50 53 53 59 61 64 66 67 66 67 67 69 72 73 74 75 75 76 76 77 76 76 76 76 76 76 76 74 75 75 75 75 75 74 75 75 73 70 70 68 70 67 70
45 49 54 58 61 66 67 67 67 68 68 70 70 72 74 75 76 76 76 76 76 76 76 76 76 76 75 70 68 73 74 75 75 75 74 75 72 70 67 67 66 68 66
38 45 51 55 59 60 69 68 68 69 71 71 71 72 74 74 75 76 76 76 76 77 77 76 76 76 76 67 66 68 74 74 75 75 75 74 73 72 71 66 65 65 65
44 51 38 48 57 48 51 63 68 72 71 73 73 75 75 74 75 76 76 77 76 77 76 77 77 77 76 67 64 66 73 74 74 75 75 75 74 74 72 70 68 67 67
47 47 42 45 60 54 57 60 62 70 71 70 73 73 75 75 75 76 76 77 77 77 77 77 77 77 77 65 63 64 72 72 73 74 75 75 75 70 65 71 69 68 68
58 60 58 57 53 64 56 62 61 67 70 70 71 74 74 75 75 76 77 77 77 77 76 77 77 74 77 68 61 64 73 71 71 73 74 67 73 66 61 71 71 69 68
60 61 62 61 68 68 64 69 68 65 69 71 72 74 76 75 75 77 77 77 77 77 77 77 77 77 76 76 61 59 74 73 72 71 71 72 63 62 58 64 72 70 70
60 58 62 63 65 68 69 70 72 75 75 75 73 75 77 74 74 77 78 78 77 77 77 77 76 76 77 68 65 58 61 70 74 72 71 71 61 59 57 61 65 61 65
63 62 64 67 71 72 75 74 77 78 77 79 77 77 78 77 76 77 77 76 77 76 76 75 75 75 76 76 63 59 58 60 70 74 71 59 56 56 58 58 61 61 70
64 63 65 67 73 75 76 76 77 78 78 79 79 79 78 77 77 76 76 75 75 75 75 74 74 74 74 74 75 72 65 61 65 67 70 68 65 60 64 63 62 70 72
68 70 70 69 70 71 71 71 73 75 75 77 77 78 76 77 77 76 74 75 75 71 73 73 73 72 73 66 57 60 71 72 68 69 73 73 71 72 68 69 67 70 72
66 68 70 68 70 70 70 71 72 73 75 76 74 73 72 73 73 74 74 65 61 57 49 50 62 68 53 48 46 47 50 51 54 67 71 72 72 69 70 69 68 69 69

GFSMW_sfc_dewp_033.txt.gz
Dewpoint
58 58 59 60 61 65 65 66 67 68 68 70 70 69 68 70 68 68 71 72 73 73 74 74 72 73 70 71 69 68 67 60 63 60 60 60 58 60 62 64 67 66 65
57 58 58 59 61 65 66 66 69 69 68 69 68 70 70 70 68 68 73 73 73 74 74 73 72 73 72 71 70 69 68 64 61 64 61 57 58 60 60 58 60 64 65
56 58 58 58 61 65 65 68 68 70 69 70 70 71 71 70 69 68 71 73 73 75 73 73 73 73 73 72 71 71 69 65 63 65 64 57 56 59 60 60 57 61 61
56 58 58 58 61 65 66 67 69 72 70 71 70 69 67 67 68 67 69 71 73 73 74 73 73 73 72 70 71 72 70 68 60 61 63 65 65 59 57 61 59 61 59
56 57 58 59 60 65 67 67 69 72 71 71 70 70 69 69 68 68 68 70 71 73 74 74 74 73 74 71 70 71 71 71 67 60 61 62 63 63 61 57 60 61 61
53 58 59 59 59 64 68 69 70 72 71 71 72 71 70 68 68 68 67 71 71 72 73 74 74 74 73 73 72 72 72 70 71 67 65 59 59 60 60 60 61 58 60
51 59 58 58 60 64 67 70 71 72 72 71 71 73 71 69 68 67 68 70 71 71 72 74 73 74 73 74 73 72 73 72 71 70 65 66 62 64 61 61 60 59 61
57 57 57 58 59 62 66 70 71 71 73 72 70 70 74 71 68 72 67 71 69 71 72 73 74 73 74 74 73 73 73 73 71 71 68 65 66 65 61 59 60 57 58
55 56 57 58 59 62 65 68 71 71 72 72 72 70 71 74 68 67 72 67 71 69 72 72 75 74 73 73 74 73 72 73 72 71 71 68 66 66 64 62 61 59 57
53 57 57 58 59 60 64 66 71 71 71 71 72 72 70 71 73 69 68 72 68 70 70 73 72 74 74 74 73 74 74 73 73 72 71 70 68 65 65 63 61 61 58
54 57 58 59 60 60 63 66 69 71 72 72 71 72 72 70 73 72 69 71 72 71 72 73 72 73 73 75 73 73 73 74 73 72 71 70 69 64 64 64 64 60 60
53 58 59 59 60 60 62 64 67 71 72 72 72 72 73 72 70 73 73 68 73 71 74 74 73 74 73 73 74 73 73 72 73 73 71 71 70 67 67 67 62 61 62
52 56 59 59 60 59 60 62 65 69 71 72 73 72 72 73 72 71 71 74 69 74 71 75 74 74 74 74 73 74 74 72 73 73 72 71 70 67 66 67 66 63 62
50 54 57 59 60 60 60 62 63 66 70 71 72 73 73 73 73 73 72 70 73 71 75 71 74 74 74 73 74 73 73 73 72 73 73 72 71 69 67 66 65 66 64
50 52 55 58 60 60 60 61 62 64 66 71 72 72 73 73 73 73 74 73 71 72 72 74 72 74 73 73 73 73 73 73 73 72 74 73 72 70 68 67 65 63 65
51 51 54 57 59 61 61 62 62 64 65 68 71 72 73 73 73 73 73 74 74 71 73 73 72 73 74 69 68 72 73 73 73 73 72 73 72 70 67 66 66 65 60
38 44 50 55 60 62 63 63 63 64 65 66 68 71 72 73 73 73 73 73 73 74 72 72 74 72 73 67 66 68 73 73 73 73 73 72 73 71 71 67 66 65 64
44 45 42 42 50 59 64 64 65 66 65 66 67 68 71 72 73 73 73 73 73 73 74 74 73 74 74 66 64 66 72 73 73 73 73 73 73 72 72 71 69 68 66
58 58 57 58 54 51 56 66 67 67 69 66 68 69 71 71 72 73 73 73 73 73 73 74 74 74 74 64 63 64 71 72 72 73 73 73 73 69 65 72 70 69 68
59 58 58 58 61 60 59 61 65 66 66 68 71 73 71 72 72 72 73 73 74 74 74 74 75 72 75 66 61 64 72 72 72 72 72 66 71 65 62 71 71 69 68
61 59 59 57 59 61 59 58 62 66 68 69 70 72 73 73 73 73 73 74 74 74 74 75 75 75 74 74 61 60 73 73 73 72 71 71 63 61 60 61 72 70 69
62 63 63 63 58 60 58 60 64 66 67 69 70 72 73 72 74 75 75 75 75 75 75 75 75 75 76 66 62 59 61 70 74 73 73 71 60 59 59 60 64 62 63
67 68 66 65 73 73 71 68 71 72 70 73 71 73 73 75 73 74 76 75 75 75 75 75 75 75 76 76 62 59 59 60 71 75 71 64 59 56 58 59 61 60 69
63 66 68 69 70 71 71 71 71 72 73 71 74 74 75 75 74 76 75 75 75 75 75 75 74 75 74 75 72 69 64 60 64 67 71 69 66 64 65 63 61 65 70
61 64 65 68 69 70 70 71 71 71 71 72 75 75 75 75 75 74 74 75 72 72 75 75 74 73 68 60 53 55 66 69 66 66 71 72 73 72 72 69 68 66 67
62 62 64 67 68 68 67 68 70 70 70 73 73 73 73 75 74 74 68 53 54 51 49 52 58 54 52 48 46 45 46 46 47 62 69 70 71 72 73 72 72 70 67

GFSMW_sfc_dewp_036.txt.gz
Dewpoint
60 62 62 62 62 64 63 63 63 67 68 69 68 66 65 67 68 69 69 70 71 72 73 72 71 71 69 70 68 67 65 58 62 59 58 58 60 60 63 66 66 66 67
60 61 62 62 61 64 64 64 64 65 68 67 68 67 67 68 68 68 70 71 72 73 73 72 71 71 70 70 68 69 67 62 61 62 58 55 55 59 60 64 66 65 66
57 60 61 62 62 63 64 65 65 65 66 68 68 70 70 68 68 67 71 71 72 73 73 72 72 72 71 70 70 69 66 60 63 63 59 56 53 57 60 58 62 64 64
57 58 59 61 60 63 64 66 66 66 66 69 67 67 67 67 68 67 69 71 73 73 73 72 72 72 72 71 71 71 69 64 58 61 64 63 62 55 54 59 59 61 61
57 57 57 59 60 63 64 66 68 67 67 70 67 67 66 67 69 67 67 70 71 73 72 72 72 71 72 70 70 71 70 68 65 57 61 61 62 62 58 55 57 61 60
57 57 58 58 60 63 64 66 69 68 68 70 69 68 67 68 67 67 66 69 70 71 73 73 72 72 73 71 70 70 71 70 67 63 61 59 58 59 59 59 59 57 58
56 56 58 57 59 63 64 66 67 70 69 69 70 69 68 68 68 67 66 69 69 70 72 73 73 72 72 72 71 71 71 70 70 68 65 62 59 62 59 59 60 59 59
56 56 57 58 59 63 65 65 66 68 70 70 70 70 70 69 68 68 67 67 70 69 70 73 73 73 73 72 72 71 71 72 70 70 66 65 65 65 62 58 59 56 58
56 55 57 58 59 63 65 66 66 66 70 69 70 71 71 70 69 68 69 68 70 71 71 71 73 73 73 72 72 71 71 73 71 69 70 66 64 65 64 61 60 57 56
55 54 57 58 59 62 65 67 67 66 69 70 69 69 70 73 70 68 69 71 69 70 71 71 73 73 72 72 73 72 72 72 72 71 69 69 68 65 64 64 60 59 56
54 53 56 58 58 60 64 68 68 68 69 71 71 70 69 69 73 70 67 68 70 69 70 71 72 73 73 72 72 72 73 72 72 72 70 69 68 67 64 63 63 60 58
54 54 57 57 58 59 62 66 69 69 70 71 71 71 71 70 69 73 70 68 69 71 69 72 72 72 73 73 72 72 72 73 72 72 71 70 70 68 66 63 63 62 60
53 55 56 57 58 58 61 65 69 70 70 70 70 71 71 71 69 70 72 71 68 70 72 73 72 72 72 72 73 72 72 72 73 72 72 71 70 69 68 65 64 63 61
54 55 56 57 58 58 60 64 65 70 70 70 71 70 71 71 71 70 70 72 72 68 70 73 73 73 73 72 72 73 73 72 72 73 72 72 71 70 69 67 65 64 63
54 55 57 57 59 59 59 63 64 68 70 71 71 71 71 72 72 72 71 70 71 73 69 70 72 74 73 73 73 72 72 73 73 72 73 73 72 70 69 68 66 64 63
55 56 57 58 59 59 60 62 63 66 69 70 71 71 72 72 72 73 73 71 71 70 72 71 72 72 73 69 68 71 72 72 72 72 72 72 71 70 67 66 66 66 64
55 57 58 58 59 60 60 61 62 64 68 70 70 71 72 73 73 73 73 73 73 72 70 70 72 72 72 66 66 68 72 72 72 72 72 72 72 71 72 67 65 65 64
50 48 55 58 61 61 60 61 62 63 64 66 70 71 72 72 73 73 73 73 73 73 73 71 71 72 72 65 64 66 72 72 72 73 72 72 72 72 72 72 70 68 68
57 57 57 54 54 62 62 62 62 63 64 65 66 70 71 72 73 72 73 73 73 72 73 73 73 71 72 63 62 64 71 72 73 73 73 73 73 68 64 72 72 70 69
58 56 55 58 58 58 62 63 62 63 63 64 66 67 70 71 72 72 72 73 73 73 73 72 73 71 73 63 61 64 72 72 72 73 73 66 70 65 62 70 71 71 71
64 63 65 63 58 57 59 62 64 64 65 66 66 68 68 70 71 72 72 72 73 73 73 73 73 74 73 73 61 60 73 73 73 72 72 72 63 61 60 61 72 71 71
66 68 70 70 71 68 64 68 67 68 67 69 70 70 70 69 70 71 71 72 72 73 73 73 74 74 75 66 61 59 61 70 74 74 74 73 62 58 58 60 63 62 63
62 65 68 69 69 70 70 69 70 71 70 69 69 70 71 72 73 73 72 72 73 72 73 73 74 75 75 76 61 59 59 60 71 75 72 64 60 57 58 57 60 60 69
61 63 64 68 68 69 69 69 69 70 70 70 71 71 71 72 73 73 74 73 74 74 74 74 75 75 75 75 70 68 65 60 63 64 69 67 64 61 65 65 63 64 68
61 62 64 65 66 67 66 67 68 69 69 70 72 72 72 72 73 66 65 73 74 73 75 75 75 74 72 64 56 59 66 67 63 64 69 69 70 71 72 73 73 71 68
61 63 63 65 66 66 66 67 68 69 68 68 71 72 73 73 73 66 59 50 48 49 50 52 57 54 52 49 48 46 46 46 48 61 64 66 67 69 70 71 72 72 70

GFSMW_sfc_dewp_042.txt.gz
Dewpoint
61 63 64 64 64 64 64 66 66 67 68 68 67 68 67 69 70 70 71 71 72 74 72 72 71 72 70 71 70 68 65 64 63 62 61 62 62 65 66 67 67 67 68
60 62 63 63 63 63 63 65 66 67 68 68 68 68 67 68 69 70 71 71 72 73 73 72 72 71 71 72 70 69 67 63 65 61 60 59 61 62 61 66 67 67 67
60 61 63 63 63 63 63 64 65 66 68 68 68 68 68 68 68 69 70 70 72 72 74 73 72 72 71 71 70 70 66 63 65 65 61 58 58 59 61 63 65 67 67
60 61 62 62 63 63 64 64 65 66 67 68 68 68 66 65 66 68 70 70 71 72 73 73 72 72 72 72 71 70 69 65 65 64 65 64 62 59 59 61 62 63 65
60 60 61 62 63 63 64 64 65 65 67 68 68 67 67 66 67 68 69 70 71 72 73 73 73 72 72 72 72 72 70 67 64 63 65 65 64 62 59 58 60 63 64
60 61 61 62 62 63 63 65 65 65 66 68 68 68 67 66 67 67 67 69 70 71 73 73 73 73 72 72 72 72 71 70 68 64 65 64 64 63 62 60 60 60 63
60 60 61 61 62 62 63 64 65 65 65 67 68 67 67 67 67 67 67 68 70 71 72 73 72 72 72 73 72 71 72 71 71 69 65 64 63 63 63 62 61 61 61
60 60 61 61 62 63 63 64 65 65 65 66 67 67 67 67 67 68 68 68 69 70 72 72 73 73 73 73 73 71 70 72 71 71 69 67 65 64 64 63 63 61 60
59 60 60 61 61 63 63 64 65 65 65 65 67 67 67 67 67 69 69 68 70 70 71 72 73 73 73 73 73 72 72 72 72 71 71 69 67 65 65 64 63 63 60
57 57 59 60 61 62 63 64 64 65 65 66 66 67 67 68 68 69 69 69 69 71 71 71 72 73 73 73 73 72 72 72 72 72 71 71 70 67 66 66 64 62 62
54 54 57 59 60 61 63 63 64 65 65 66 67 67 67 68 69 69 69 69 69 70 71 71 71 72 73 73 73 73 72 72 72 72 72 72 71 70 68 66 65 64 61
53 53 54 58 59 60 61 63 64 65 66 67 67 67 68 69 69 69 69 70 69 70 71 71 71 72 72 73 73 72 72 72 71 71 72 72 71 71 70 68 67 65 65
54 53 53 56 58 59 61 63 64 64 65 67 67 67 68 69 69 69 70 70 70 70 70 71 71 72 72 73 73 73 72 73 72 72 72 72 72 72 71 70 68 66 65
54 54 54 57 58 60 62 63 63 64 65 67 67 67 68 69 70 70 71 70 70 70 70 71 71 72 72 73 73 73 73 72 73 73 73 72 72 72 72 71 70 70 68
53 56 56 57 59 60 61 64 64 65 65 66 67 68 69 70 70 71 72 71 70 70 70 71 71 71 71 71 73 73 73 72 72 73 73 73 72 70 71 72 72 71 69
40 53 57 57 58 60 61 63 65 65 66 66 67 69 69 70 70 70 70 72 72 71 71 70 70 71 70 67 67 71 73 73 73 72 73 73 71 70 67 67 68 70 71
39 41 56 57 57 59 61 63 65 67 67 67 68 69 70 70 71 71 70 70 71 72 71 71 71 71 72 65 65 67 72 72 73 73 73 72 72 71 73 69 66 66 65
52 47 55 56 57 58 59 62 65 68 69 69 69 70 71 71 71 71 71 71 70 70 72 72 71 71 71 64 63 65 72 72 72 73 73 73 73 73 73 73 73 72 72
58 55 56 57 58 59 61 63 66 69 69 69 70 70 71 70 71 71 71 72 72 71 70 71 72 72 72 62 62 64 71 72 72 73 73 73 73 68 64 72 72 73 73
66 59 60 60 60 61 61 64 65 67 69 69 70 71 71 71 71 71 72 72 72 72 72 71 72 69 71 63 61 63 70 70 71 73 74 66 71 65 62 70 72 72 72
68 65 62 61 62 62 62 63 65 65 67 69 70 71 72 72 72 72 72 72 72 73 73 73 73 73 71 71 60 59 71 71 71 72 72 73 63 60 60 61 72 72 72
66 67 68 67 66 64 63 64 65 67 67 68 70 71 72 71 72 72 73 73 73 73 73 73 73 74 74 65 62 58 60 67 72 72 73 73 62 58 57 59 62 61 63
62 66 65 66 67 69 69 68 70 72 68 67 68 69 71 72 72 73 73 72 73 72 72 72 72 73 74 74 60 58 58 59 69 73 70 65 61 55 57 57 58 58 65
60 62 65 65 65 67 68 69 70 71 70 69 69 69 69 69 71 72 72 72 72 72 72 73 73 74 74 75 75 69 65 59 63 65 69 66 64 61 65 65 65 64 67
57 61 62 64 64 65 66 68 68 69 69 71 72 71 71 70 69 60 62 70 71 69 72 73 74 74 74 74 68 70 73 71 66 67 70 70 70 70 70 70 71 71 69
55 60 63 63 64 65 66 67 67 67 68 68 69 71 71 70 65 62 59 48 47 47 51 57 66 60 52 47 47 48 49 50 53 67 68 67 67 67 66 65 65 66 63

GFSMW_sfc_dewp_045.txt.gz
Dewpoint
59 61 63 65 67 68 68 69 69 71 70 69 67 67 65 67 68 70 73 73 73 74 75 73 74 74 72 73 72 68 68 65 66 63 62 63 65 67 67 67 67 67 68
58 61 63 64 65 67 68 69 69 71 71 69 70 67 68 68 69 72 73 73 73 75 75 75 74 74 72 74 73 71 65 65 65 62 62 58 61 63 64 66 66 67 68
57 60 63 64 64 66 68 69 70 71 71 71 70 70 71 71 69 70 71 72 73 74 76 75 74 74 76 77 74 71 68 63 67 66 62 57 56 61 63 65 65 68 67
58 60 62 63 64 65 67 69 70 71 71 72 71 72 67 66 67 69 70 72 74 73 74 76 75 76 73 76 73 72 70 67 64 66 66 66 64 58 57 61 64 66 66
60 60 61 63 64 65 65 67 70 72 72 73 73 70 70 67 69 68 72 74 74 74 73 75 75 76 75 76 74 74 73 67 65 65 66 68 64 65 60 58 60 62 62
61 62 62 63 64 64 65 66 70 71 72 72 72 73 73 71 68 69 68 68 70 71 74 74 75 75 74 75 74 76 74 73 69 65 66 65 64 62 61 60 63 61 63
61 61 62 62 64 65 66 67 69 70 71 71 72 72 73 73 72 71 68 69 67 69 73 74 75 74 75 75 75 75 75 74 71 72 65 64 64 65 65 62 62 61 64
60 61 62 63 65 66 67 67 69 70 70 71 72 73 73 68 68 71 68 67 67 68 73 74 74 74 75 75 75 73 73 74 73 73 73 69 67 64 64 62 61 59 62
60 61 62 63 64 65 67 68 69 70 70 69 71 72 73 72 70 73 72 69 72 68 72 73 74 74 74 75 75 73 74 74 74 74 74 72 69 68 66 65 64 62 59
60 61 62 62 64 64 65 67 68 69 70 69 70 70 71 72 72 72 72 72 71 72 71 73 73 74 74 75 75 73 74 75 73 72 74 74 70 70 69 67 66 65 63
59 60 62 63 64 64 65 66 67 69 69 69 70 70 70 71 71 71 71 73 72 73 73 74 74 74 74 74 75 75 74 74 75 74 74 74 75 71 70 69 68 67 65
58 60 61 62 62 64 64 65 66 66 68 69 70 70 71 71 70 71 71 73 73 73 73 73 73 74 73 74 74 74 72 74 74 74 74 74 72 74 74 71 73 70 70
56 58 59 61 63 64 65 65 66 64 65 68 68 69 69 70 71 72 72 73 73 73 71 72 73 73 73 74 74 74 74 74 73 73 74 74 74 74 72 73 71 70 71
56 58 58 60 63 64 66 66 66 65 65 66 67 69 70 71 71 72 73 72 74 73 73 73 73 73 73 73 73 73 74 74 74 74 74 74 74 74 74 73 74 73 72
49 57 58 61 64 65 66 67 66 67 67 69 68 69 71 72 73 73 73 73 73 73 73 73 73 73 72 70 73 73 74 74 74 74 74 74 74 71 72 72 75 74 72
49 52 58 61 62 64 66 66 67 67 69 70 69 71 72 73 73 74 74 74 73 73 74 73 73 73 70 66 66 71 73 74 74 74 74 75 72 72 68 67 68 72 75
62 60 53 61 62 63 66 66 67 68 69 70 71 72 73 73 73 74 74 74 74 73 74 73 73 73 74 65 64 67 71 72 73 74 74 73 71 72 74 69 66 67 66
62 63 61 54 63 61 62 66 67 69 69 70 71 72 73 73 73 74 74 74 74 74 74 73 74 74 74 65 63 65 72 74 74 75 74 75 75 74 73 74 73 73 74
63 66 65 51 62 63 65 67 68 69 69 70 71 72 73 73 73 73 74 73 73 73 73 73 74 74 74 63 62 65 72 72 74 74 75 74 75 69 65 74 73 74 74
66 65 60 52 62 64 64 67 67 69 69 70 71 73 73 73 74 74 74 74 74 73 71 72 74 71 74 65 60 64 70 71 70 74 75 67 71 65 62 73 73 73 74
66 64 60 63 64 66 65 67 69 69 70 70 71 73 74 74 75 75 75 74 74 74 74 73 74 74 73 73 60 58 71 70 70 70 71 72 63 61 60 61 74 74 74
65 66 64 64 66 67 67 68 70 72 73 73 73 74 75 72 72 75 75 75 75 74 74 74 73 73 74 66 62 58 60 68 72 73 72 73 62 58 58 60 63 61 62
64 66 67 68 68 67 69 69 71 73 73 74 74 74 74 74 75 75 74 73 74 72 72 72 72 72 73 74 61 58 57 59 69 73 70 64 60 56 59 58 59 58 66
62 65 66 67 69 71 71 72 72 71 72 73 74 74 74 73 74 73 73 72 72 72 71 71 71 72 73 74 74 72 67 60 63 65 70 68 66 64 67 67 65 64 67
53 63 65 66 67 69 69 69 71 73 70 71 71 72 71 72 73 73 69 72 74 69 71 72 72 72 73 73 69 70 75 73 68 69 73 73 73 72 72 72 71 72 70
53 55 61 66 66 67 67 68 68 69 72 73 71 68 68 69 71 67 63 48 48 47 51 56 67 68 54 52 51 51 55 56 54 69 71 71 70 69 69 68 67 67 65

GFSMW_sfc_dewp_048.txt.gz
Dewpoint
59 59 60 60 61 64 66 67 68 70 69 66 64 65 65 67 67 68 71 74 73 74 75 73 70 71 68 69 71 67 69 62 64 60 57 58 62 64 64 63 62 63 63
58 59 60 61 61 64 66 68 69 71 71 66 67 65 66 65 66 69 73 73 73 74 73 73 71 72 71 70 70 71 63 62 63 59 57 55 58 60 61 63 63 64 63
57 59 60 61 62 64 66 68 70 71 71 70 66 68 68 68 68 70 69 72 73 74 75 73 72 71 71 67 71 71 69 61 63 66 63 57 61 59 60 63 61 65 62
57 59 60 61 61 64 66 68 70 71 71 72 69 73 66 65 64 67 67 70 73 73 74 75 73 73 75 72 70 69 67 68 62 62 62 65 64 57 59 59 61 62 62
57 58 60 62 62 63 65 68 71 73 73 73 73 68 69 62 64 65 71 74 75 74 72 75 73 73 70 73 74 74 72 65 63 61 61 65 62 64 58 56 58 60 60
57 58 60 62 63 63 64 67 71 73 73 71 71 73 72 69 64 68 66 66 67 71 74 74 75 73 72 73 72 73 74 71 68 64 64 61 61 60 61 59 61 60 62
59 59 59 61 63 64 64 65 70 73 73 71 71 71 72 73 72 71 67 69 64 65 71 75 75 73 75 74 74 74 74 73 70 72 62 61 61 62 61 61 59 60 62
57 59 61 61 63 64 65 66 69 72 73 72 74 75 74 68 68 71 67 66 64 64 70 73 73 74 74 74 75 75 72 73 72 73 72 64 64 64 61 60 60 58 59
57 59 61 62 62 64 67 68 70 71 71 70 73 75 74 73 70 74 71 67 71 65 69 70 73 73 74 75 75 71 73 73 73 73 74 71 65 66 65 64 62 61 58
57 59 61 62 62 63 65 66 68 70 70 69 70 70 71 73 73 72 73 73 70 72 70 71 71 72 73 74 75 72 74 74 72 70 73 74 67 67 67 66 64 63 62
56 58 60 61 62 63 64 65 66 68 69 70 71 71 70 70 71 71 72 73 72 72 73 72 71 72 73 74 75 74 72 74 74 74 73 74 75 69 66 66 66 65 64
54 57 58 60 61 62 63 64 65 66 68 70 73 71 71 71 70 71 71 73 73 73 73 73 72 72 72 73 74 74 71 73 73 73 74 73 71 74 74 69 73 70 70
50 55 56 59 60 62 63 62 64 64 65 68 68 68 69 69 71 72 72 73 73 73 72 72 73 72 71 73 74 74 73 73 73 73 73 73 74 74 71 71 69 68 70
48 51 55 57 61 63 67 67 64 63 63 65 66 69 70 70 69 73 74 72 74 73 73 73 73 73 72 71 72 73 73 73 73 73 73 74 74 75 75 74 75 74 72
45 52 54 58 64 66 68 68 65 66 65 68 66 69 72 72 73 74 74 73 74 74 74 73 73 73 71 68 72 71 72 73 73 73 74 74 73 71 72 73 76 77 73
45 44 52 56 60 63 67 69 69 67 68 70 69 71 74 75 74 75 76 75 75 75 74 73 73 73 69 64 65 69 70 72 73 73 74 74 73 72 68 68 68 71 75
55 56 54 53 57 60 65 67 70 69 70 72 72 73 75 75 75 75 76 76 76 75 75 74 74 75 75 64 63 66 69 69 72 74 73 71 68 72 73 69 67 68 66
60 60 59 60 56 57 59 65 66 71 72 73 73 74 75 75 76 76 76 77 75 76 75 74 76 76 74 64 62 65 72 72 73 73 73 75 74 73 72 73 72 73 73
64 64 64 62 64 58 60 64 65 68 71 72 73 74 75 75 75 75 76 75 75 75 74 74 76 76 76 63 62 66 71 71 74 73 74 75 75 69 64 73 73 73 73
64 66 66 66 65 65 58 61 65 67 70 72 73 75 75 75 75 76 76 76 75 74 72 73 75 71 75 64 61 66 70 71 69 75 77 66 71 65 62 74 73 73 72
65 67 67 66 65 64 59 66 67 68 70 70 71 74 75 76 76 77 77 76 75 74 75 74 75 76 74 74 60 59 72 68 67 67 66 68 62 61 60 61 73 73 73
66 66 63 61 60 60 65 69 70 71 73 73 73 75 76 72 72 77 77 76 76 76 76 75 73 72 74 66 61 58 61 67 70 69 67 72 61 57 58 61 63 61 63
62 67 65 63 64 66 67 69 73 74 73 73 75 75 75 74 76 76 76 73 75 72 72 71 71 70 70 73 62 58 58 60 69 71 68 62 60 57 60 58 59 58 72
53 64 68 69 69 68 68 70 72 75 74 73 74 74 74 73 74 73 73 71 71 71 70 70 69 69 70 71 73 71 67 60 65 67 70 69 66 61 66 71 70 72 70
54 56 64 67 68 70 70 72 72 73 72 73 73 73 72 73 73 73 68 71 73 67 70 69 70 70 70 70 68 68 73 73 69 71 73 72 73 73 74 74 74 73 71
55 56 57 62 65 66 68 69 71 73 71 71 70 69 69 71 71 73 69 49 48 46 47 51 63 69 57 55 57 56 58 57 55 70 74 74 74 73 73 71 70 70 68

GFSMW_sfc_dewp_051.txt.gz
Dewpoint
58 59 59 59 59 61 63 66 68 73 69 67 66 66 64 67 68 72 71 73 71 72 74 70 71 71 69 74 69 66 67 61 62 59 56 57 58 61 59 59 58 60 60
58 59 60 59 58 61 64 69 70 74 71 67 69 68 68 65 65 66 72 72 72 73 70 74 74 73 70 72 70 71 65 59 67 69 56 60 63 58 59 59 59 60 60
57 58 59 59 59 61 64 69 72 74 73 72 69 69 69 67 65 70 69 71 72 73 73 72 75 72 75 69 71 70 72 63 61 67 69 65 62 60 58 62 60 63 61
57 58 59 59 59 61 64 70 72 74 73 74 69 72 66 64 63 66 66 69 72 72 72 73 73 73 70 75 72 70 71 71 63 60 60 70 66 67 61 58 60 61 61
56 57 58 60 60 61 63 66 73 74 74 74 73 68 70 64 63 62 75 75 76 73 71 73 74 74 70 73 73 73 73 65 72 66 59 65 60 67 62 61 58 60 59
56 57 59 60 60 61 63 66 73 75 75 75 74 74 72 70 62 65 67 66 68 70 73 73 74 74 73 74 73 74 73 74 69 66 65 66 66 64 58 58 62 58 60
56 57 58 59 62 63 64 67 72 74 75 74 73 73 74 74 74 72 65 67 63 64 74 76 76 73 75 74 74 75 74 73 70 72 63 61 61 61 60 59 58 58 60
54 56 58 60 63 64 66 67 71 74 75 73 74 74 75 66 64 70 65 64 62 63 76 74 73 74 74 73 76 72 71 74 71 72 74 66 62 62 62 60 60 59 59
54 56 58 59 62 64 67 68 71 74 74 70 74 75 74 72 66 70 73 68 72 64 70 72 73 73 73 75 77 70 73 75 74 74 74 71 65 64 63 62 62 61 59
54 55 58 59 61 62 64 67 69 72 73 72 73 73 74 75 73 74 75 73 72 74 70 72 71 72 74 74 78 73 75 75 71 69 76 76 68 67 66 65 63 62 61
52 54 57 59 60 61 63 64 67 70 71 72 73 72 72 72 74 74 74 75 74 75 75 74 73 73 73 75 77 77 74 74 76 75 73 75 77 69 64 65 65 64 63
49 54 55 59 61 61 62 64 65 65 69 71 73 72 72 72 71 73 74 76 76 75 75 75 75 74 73 75 76 74 72 73 73 73 75 72 70 77 77 70 76 70 72
45 52 54 57 60 61 63 62 64 63 65 70 70 71 71 72 71 74 74 75 76 76 73 75 76 75 74 75 76 76 74 73 73 74 75 74 75 77 72 74 70 67 70
47 49 54 56 59 63 66 66 63 63 63 65 67 70 71 72 71 73 75 75 76 76 76 76 76 75 74 74 73 74 75 75 73 74 74 75 75 77 77 75 77 75 73
43 47 51 58 64 65 68 68 65 67 65 67 67 69 73 73 73 73 75 75 76 76 77 77 76 76 72 69 74 74 75 76 74 74 74 74 74 71 73 72 76 77 74
43 44 50 54 59 65 67 69 68 67 67 69 68 70 73 74 73 74 75 76 76 77 77 77 76 75 69 65 65 71 73 75 75 75 76 76 73 72 68 68 68 72 76
43 47 45 51 54 57 66 67 70 69 69 71 70 72 74 74 75 75 76 76 77 77 78 77 77 76 76 64 63 65 70 72 74 76 76 73 67 73 75 70 67 68 66
51 55 54 53 53 53 56 64 66 72 71 71 73 73 74 75 76 76 76 77 76 77 77 77 77 77 76 65 62 64 73 72 74 75 75 76 76 75 74 75 74 75 76
60 61 60 60 61 56 56 64 65 71 71 72 73 74 74 75 76 76 76 77 76 77 77 77 78 78 77 64 62 65 72 71 74 75 75 75 76 70 65 74 74 75 75
61 63 63 63 63 64 60 57 63 67 71 72 73 75 75 76 76 77 77 78 77 77 74 76 77 74 78 65 61 65 70 72 70 75 76 67 71 66 62 75 75 75 75
64 66 67 66 67 66 64 64 63 67 70 72 73 76 76 77 77 78 78 78 77 75 77 76 77 77 76 76 60 59 74 69 68 67 66 67 62 61 60 61 75 74 74
61 64 69 67 67 68 69 69 68 69 73 74 74 76 77 74 74 78 78 78 78 78 78 77 76 73 77 68 61 58 61 69 71 68 62 66 58 57 58 61 62 60 63
60 62 68 68 64 68 70 71 70 74 74 75 75 76 77 77 76 77 78 75 77 72 73 72 71 69 70 74 61 58 58 61 70 70 64 62 59 58 59 58 61 60 72
56 59 66 71 71 71 69 70 76 75 76 76 76 76 76 76 76 74 74 72 71 71 69 69 68 67 66 65 69 70 65 61 66 68 70 68 65 63 67 70 65 73 74
56 57 61 65 67 70 72 71 73 75 74 75 75 75 73 74 75 75 71 71 69 66 69 65 64 62 64 63 62 66 72 72 69 70 72 71 71 72 74 75 76 77 75
56 56 58 60 61 63 64 65 68 76 73 73 72 71 70 72 72 70 68 52 56 49 49 49 60 70 55 55 52 55 55 57 57 70 71 72 73 73 74 74 74 72 70

GFSMW_sfc_dewp_057.txt.gz
Dewpoint
59 57 56 58 63 62 62 66 67 68 71 71 70 69 68 68 70 71 73 73 74 73 72 71 72 69 68 65 69 66 64 65 64 59 61 60 63 63 65 64 65 68 69
58 57 55 59 62 63 63 68 69 68 70 69 70 69 69 67 68 72 73 72 72 72 70 71 72 70 70 71 69 69 67 66 64 62 64 59 59 62 61 63 62 63 68
56 57 55 57 61 64 65 67 70 69 70 68 69 71 69 70 68 70 72 73 73 73 73 73 73 71 71 70 69 69 68 64 64 64 64 57 57 61 63 60 62 60 64
56 57 56 57 59 63 65 68 70 69 69 68 67 69 67 66 67 69 71 72 72 72 73 72 72 72 72 72 71 71 69 65 66 62 65 64 63 59 58 63 63 61 63
57 56 56 56 59 63 64 68 70 69 68 70 67 68 67 69 68 69 70 72 73 73 73 73 73 72 71 70 71 71 70 70 68 64 64 62 63 65 63 59 60 63 63
57 57 57 57 60 63 64 67 70 68 68 69 71 67 67 68 67 69 69 71 73 73 74 73 73 73 72 72 71 72 70 70 71 69 69 63 62 63 63 62 62 60 61
57 57 57 57 59 62 63 66 68 70 68 68 69 71 67 68 68 69 70 70 71 72 73 73 74 74 73 72 72 72 72 72 71 70 68 68 66 64 65 63 62 62 62
59 57 58 58 58 61 63 65 66 68 69 68 67 70 70 66 69 70 69 70 70 70 73 73 73 72 73 73 73 72 72 73 71 70 71 70 69 69 65 61 61 60 62
63 63 59 58 59 61 62 64 66 66 69 69 67 68 72 66 68 68 69 67 69 70 72 73 72 74 73 73 74 72 73 72 73 71 70 72 70 70 69 65 63 63 60
64 65 65 63 61 60 62 64 67 66 69 69 69 66 68 71 68 67 69 68 67 69 72 74 73 74 73 72 74 71 73 72 72 72 72 71 71 70 71 67 67 66 63
63 65 65 67 64 61 61 63 67 67 68 68 70 67 66 70 70 68 66 70 68 73 73 73 73 74 74 74 73 72 73 72 72 72 72 72 72 71 71 73 71 67 67
63 64 63 65 64 61 60 62 65 68 69 69 68 69 68 68 69 69 67 65 70 70 73 73 73 73 72 73 73 73 72 72 72 72 72 71 73 72 71 72 71 71 71
63 57 61 63 63 61 61 61 63 68 69 70 69 69 69 66 67 66 69 66 71 69 72 73 72 73 72 72 73 73 73 72 72 72 72 72 71 72 73 72 72 71 70
61 58 59 60 59 61 64 61 62 65 68 70 70 69 68 69 66 66 65 71 68 73 72 74 72 73 72 73 73 73 73 73 72 73 73 73 73 72 72 73 72 72 72
60 60 59 58 66 64 66 65 63 63 67 69 70 70 69 68 69 67 67 63 72 68 72 72 74 73 73 72 72 74 73 73 73 72 73 73 73 72 72 74 73 73 73
39 43 49 50 65 63 59 61 63 64 64 68 69 70 70 69 69 69 70 67 66 72 70 71 72 74 73 69 68 71 73 73 73 73 73 73 72 71 68 69 70 73 73
32 46 50 60 63 61 59 59 60 64 64 65 69 69 69 70 69 69 69 71 67 68 72 72 72 72 73 67 66 68 70 71 73 73 73 73 72 71 73 69 66 66 66
42 59 58 67 67 68 66 66 66 66 65 65 67 69 70 70 70 70 69 70 70 69 69 71 73 73 73 67 64 66 69 70 70 73 73 72 72 72 72 72 72 71 69
46 59 52 62 67 67 66 66 66 65 65 66 66 68 69 70 70 70 70 69 70 71 70 71 72 73 73 65 64 63 66 68 70 72 72 73 73 69 66 71 72 72 74
48 57 54 61 61 68 66 64 65 64 64 65 67 68 69 70 70 70 70 71 69 69 71 70 72 71 73 65 63 63 69 67 68 69 71 66 71 67 64 70 69 69 69
45 58 61 62 64 66 69 68 67 64 67 66 67 70 68 69 70 71 70 70 70 70 70 71 71 73 73 73 61 60 71 69 68 68 68 70 63 59 59 60 69 70 71
49 59 60 61 64 69 69 69 69 69 70 70 69 69 69 69 70 70 71 70 70 70 70 71 72 72 73 67 63 59 61 68 69 68 69 68 63 60 59 60 61 60 63
57 58 58 59 63 66 66 68 69 70 70 72 70 71 72 69 70 71 71 71 71 71 71 71 72 72 72 73 63 59 59 60 70 70 68 65 61 57 59 59 60 59 66
55 57 58 60 61 61 62 66 68 69 71 71 73 70 72 71 69 72 72 72 72 72 71 72 72 72 72 73 74 69 64 60 63 67 67 66 65 65 67 63 59 65 67
56 56 57 57 57 57 60 62 63 66 68 72 73 71 71 71 71 72 73 72 73 71 72 72 72 71 72 72 68 70 71 70 67 68 70 69 69 69 70 72 68 67 71
55 55 55 55 56 56 56 57 59 62 65 70 71 72 70 72 72 72 67 50 52 52 56 61 69 72 61 61 57 54 57 58 57 67 70 70 71 71 70 71 73 72 71

GFSMW_sfc_dewp_060.txt.gz
Dewpoint
60 58 58 63 64 65 65 66 66 68 68 69 68 69 67 68 68 72 72 72 72 69 69 71 71 68 66 64 68 65 63 65 64 60 60 60 63 63 64 67 68 69 69
59 59 57 61 62 63 64 66 66 67 68 68 69 68 68 67 68 71 73 72 72 71 70 70 71 69 68 66 69 67 66 64 63 61 62 55 56 62 62 64 66 66 69
58 58 58 60 61 61 65 66 67 68 68 68 69 70 69 68 68 70 71 72 71 71 71 71 71 69 70 69 68 68 67 61 63 63 61 55 55 60 62 61 62 62 68
59 59 58 60 60 60 65 67 67 68 68 67 68 68 67 67 66 68 70 72 72 72 72 72 72 70 70 69 69 70 67 65 62 61 64 62 62 57 56 61 63 61 64
58 58 57 61 61 61 64 68 67 68 68 66 65 67 67 67 67 68 69 71 72 72 72 71 71 71 71 70 69 70 70 69 67 62 63 61 62 64 61 58 60 61 62
58 57 57 59 61 62 63 68 68 67 68 67 66 66 67 67 68 67 69 70 72 72 72 71 72 71 71 70 70 70 68 69 70 67 67 62 61 63 63 61 60 59 59
57 58 57 57 60 62 64 68 68 66 67 68 69 66 66 66 67 68 68 69 71 72 72 72 72 71 71 72 71 71 71 70 70 70 67 67 66 63 64 61 62 61 62
59 59 57 57 59 61 63 67 67 66 66 67 68 70 66 66 68 68 69 69 70 71 73 71 72 73 72 71 71 71 70 71 70 69 70 69 68 69 66 61 60 59 61
60 61 57 57 60 61 62 64 67 66 66 66 66 68 70 67 67 69 70 70 70 70 73 71 72 72 72 72 72 70 70 71 71 70 69 70 70 69 68 66 62 60 58
61 62 59 57 61 61 62 64 65 67 67 66 65 65 67 70 66 67 68 69 69 70 71 72 72 72 72 72 72 70 71 71 71 71 71 70 70 69 71 70 66 65 61
62 64 62 62 63 64 62 63 64 65 68 68 67 65 65 68 70 66 66 68 68 68 70 72 71 72 72 71 73 71 70 71 70 71 70 71 71 70 70 71 71 69 66
62 63 63 64 62 62 62 62 64 64 65 68 68 67 65 66 69 69 66 66 68 71 72 73 72 72 72 72 71 71 71 71 70 71 71 71 72 71 70 70 70 70 69
62 64 62 60 58 61 61 62 64 65 65 66 68 68 66 65 66 68 69 65 65 68 73 73 72 72 72 72 72 72 71 71 71 71 71 71 70 71 71 71 70 70 71
63 62 59 59 60 61 61 61 62 66 66 66 67 67 68 66 64 66 67 69 65 64 69 73 72 72 72 72 72 72 71 71 71 71 72 72 72 70 71 71 71 72 71
62 54 54 48 55 61 62 63 64 64 67 67 67 66 68 69 66 64 66 66 69 66 68 71 72 72 71 71 70 71 72 71 71 72 72 73 72 71 70 71 72 71 71
47 43 52 57 61 59 53 64 65 66 67 68 68 68 67 69 69 67 65 66 65 69 68 71 72 71 71 67 68 70 71 72 72 71 72 72 71 70 68 68 69 71 72
44 47 53 64 65 65 64 62 64 66 66 68 68 69 70 69 69 69 67 65 65 63 69 67 71 72 72 66 65 68 71 72 72 72 71 72 72 71 72 68 66 66 67
43 43 45 57 64 65 67 66 66 66 65 66 68 70 70 70 69 68 68 68 68 64 63 69 68 70 72 66 64 66 70 70 71 73 73 72 72 71 71 71 71 71 70
40 43 46 55 64 63 65 67 67 67 66 65 65 68 70 70 70 69 68 69 69 69 65 67 71 71 70 64 63 64 70 70 70 70 71 72 72 68 65 71 71 71 72
41 41 46 57 62 68 66 64 66 67 64 65 64 65 68 70 70 70 69 69 68 69 69 67 67 68 72 64 62 64 70 69 69 69 70 66 70 65 63 70 71 70 70
40 43 49 61 63 64 65 64 64 64 64 66 65 66 65 68 70 70 70 69 69 68 69 69 69 70 70 70 61 60 71 71 69 68 68 69 62 60 60 61 71 70 69
41 52 56 60 62 65 67 68 67 67 64 63 64 64 65 67 69 69 70 70 70 69 68 69 70 70 71 66 62 60 61 68 71 69 68 67 61 58 58 58 61 59 60
46 54 57 57 60 64 64 63 66 69 70 70 70 68 70 69 68 69 69 70 69 70 69 68 68 70 71 71 62 60 59 61 70 71 67 62 58 57 59 59 59 58 63
48 55 56 57 59 59 59 61 63 64 65 66 68 71 72 71 71 68 72 70 69 69 69 69 69 69 70 71 72 69 65 61 63 67 69 65 64 62 64 63 61 62 65
50 55 56 55 56 56 57 58 58 59 61 62 66 70 72 70 71 71 71 70 71 69 69 69 69 70 70 71 67 69 72 71 68 67 71 67 66 68 68 69 68 64 65
53 55 54 55 56 55 54 55 55 56 58 60 63 68 72 72 72 71 67 52 53 56 56 58 66 70 64 61 56 53 57 57 56 65 70 70 70 69 69 69 70 68 66

GFSMW_sfc_dewp_063.txt.gz
Dewpoint
59 58 62 63 64 65 65 64 64 68 69 67 66 68 67 68 69 71 72 71 70 69 69 70 70 68 66 64 66 63 63 65 63 60 60 60 63 64 66 68 68 68 69
58 58 60 64 64 64 64 64 64 68 69 67 67 68 67 68 69 71 72 71 71 69 69 70 70 67 65 66 68 66 66 64 62 59 60 54 55 61 62 64 66 67 69
58 58 61 63 64 64 64 65 64 67 68 68 68 68 68 67 68 70 71 71 72 71 69 70 70 69 68 68 68 67 64 59 62 63 59 54 54 59 61 61 63 64 66
59 59 59 62 63 63 64 65 65 67 67 67 68 68 66 65 66 68 70 71 72 71 71 71 71 69 70 68 68 69 66 62 61 61 64 61 61 56 55 60 62 61 62
59 58 57 60 62 62 64 65 66 66 67 67 67 67 66 66 66 67 69 70 71 71 72 71 71 69 70 69 69 70 68 66 66 59 62 60 62 62 59 57 59 61 62
60 60 59 60 61 61 63 65 66 66 67 66 66 67 67 67 67 66 68 69 71 71 71 71 71 71 70 70 69 70 68 68 68 66 64 61 61 62 62 60 60 59 60
59 60 58 59 59 60 63 66 66 66 67 66 65 66 66 66 67 67 67 69 70 71 71 71 71 70 70 70 70 70 69 69 69 67 65 64 65 63 64 61 61 60 62
61 59 57 60 60 60 62 66 66 65 67 66 66 66 65 66 66 68 68 68 69 71 71 71 71 71 70 71 70 70 70 70 69 69 69 68 68 68 65 60 59 58 60
61 60 58 59 60 60 61 65 66 65 66 66 66 67 66 65 66 68 69 69 69 70 72 71 71 72 71 71 70 70 70 70 70 69 68 69 69 68 68 66 61 59 57
60 59 59 57 60 61 61 64 66 65 66 66 66 67 68 67 66 67 69 70 70 70 71 71 71 71 71 71 71 70 70 69 70 71 70 68 69 69 69 69 66 64 60
58 60 59 59 59 61 61 63 65 65 65 65 65 65 66 69 68 66 66 68 69 70 70 72 71 71 71 71 71 70 70 70 70 70 70 70 69 70 69 70 70 68 64
59 64 65 65 64 64 64 64 64 65 65 65 65 65 64 66 69 68 66 66 67 68 69 70 71 71 71 71 71 71 71 70 70 70 70 70 70 70 70 69 69 68 68
62 61 62 63 63 63 62 63 64 64 65 66 65 65 64 64 65 68 69 66 66 67 70 71 72 71 71 71 71 71 71 71 71 70 70 70 70 70 70 70 70 70 70
56 58 60 62 62 61 62 62 63 63 64 65 66 66 65 64 64 65 67 68 65 66 67 72 72 72 71 71 71 71 71 71 71 71 71 71 71 70 69 70 70 70 70
47 50 57 59 62 63 61 61 62 63 65 64 66 66 67 66 64 64 65 67 68 66 65 68 72 72 72 71 71 72 71 71 71 71 71 71 71 70 70 70 70 70 69
43 48 47 51 55 63 65 62 61 65 65 65 65 67 67 67 66 65 64 65 66 67 66 66 67 71 71 67 67 70 71 71 71 70 70 71 70 70 67 67 68 70 70
37 41 46 52 52 61 65 65 65 66 67 66 67 67 68 67 68 67 65 64 64 65 66 67 68 68 70 65 65 67 70 70 71 71 70 71 71 70 71 68 66 66 66
39 38 37 46 50 57 63 66 66 65 65 68 67 67 67 67 68 69 67 65 64 65 64 64 66 69 69 65 63 65 70 70 70 71 71 71 71 71 71 71 71 71 71
39 39 39 42 49 58 66 66 66 67 66 66 68 68 68 69 68 68 68 68 66 65 65 63 63 66 67 63 62 64 69 69 70 70 71 72 72 68 64 71 70 70 71
39 40 40 45 51 59 64 65 65 66 66 66 64 65 68 69 70 69 68 68 68 67 67 66 64 63 66 61 62 63 70 70 70 70 70 65 69 64 62 69 70 70 70
40 40 40 46 54 57 62 64 65 65 66 66 65 65 64 66 70 71 71 70 69 69 69 69 67 65 68 68 59 59 70 69 69 69 69 70 62 60 59 60 71 70 69
40 40 40 43 52 57 60 62 63 66 69 69 65 64 64 67 68 69 70 71 70 69 68 68 69 69 67 62 61 59 61 66 69 69 69 68 59 58 58 59 61 60 61
40 41 42 44 51 59 61 62 61 63 65 64 65 67 69 65 67 68 68 69 70 69 68 68 68 69 69 69 60 58 58 60 69 71 67 62 58 55 57 57 60 59 64
42 43 45 46 50 56 60 59 60 61 61 61 63 64 65 68 71 71 70 68 69 69 69 68 68 68 69 70 70 67 63 60 63 66 68 66 63 61 63 63 61 63 64
45 45 47 48 52 56 57 57 58 57 57 58 61 62 64 68 71 71 70 69 69 68 68 68 69 69 68 69 66 67 71 70 67 68 70 71 68 68 68 67 67 65 64
46 48 47 48 52 56 56 56 56 55 55 56 58 60 62 64 68 71 70 53 56 55 55 56 65 69 62 60 55 54 54 56 55 66 70 70 70 70 70 70 69 68 65

GFSMW_sfc_dewp_069.txt.gz
Dewpoint
62 64 64 65 65 65 67 69 70 72 71 70 69 69 69 70 70 71 73 73 74 74 74 75 72 72 69 70 71 69 70 67 68 66 64 65 66 66 66 67 67 68 68
61 62 64 64 64 65 67 69 70 72 72 70 70 70 70 70 71 72 73 73 74 74 73 74 72 72 68 72 71 71 68 68 67 64 65 59 60 63 64 66 66 67 67
59 61 62 63 64 65 67 69 71 72 72 71 71 71 71 72 71 71 71 72 74 72 73 74 73 72 71 70 72 70 70 65 67 68 64 59 57 62 65 66 65 68 66
59 60 61 62 63 65 67 69 70 71 72 73 71 71 69 68 68 70 70 72 74 73 72 73 73 73 70 73 72 72 71 68 65 67 67 68 66 60 59 63 65 66 65
60 59 60 62 62 64 66 68 70 71 72 73 73 70 71 68 70 70 73 74 75 74 73 73 74 74 72 73 73 73 71 69 67 65 66 68 66 69 64 60 62 65 65
60 60 61 62 63 64 65 67 69 71 72 72 72 72 71 71 69 70 70 70 71 77 74 73 75 75 73 74 73 74 74 73 72 70 69 65 65 65 64 63 66 64 65
61 60 61 61 63 64 66 66 68 70 71 71 71 71 72 72 72 72 69 71 70 71 74 75 75 74 74 75 74 74 74 73 71 73 69 69 70 69 68 65 63 63 65
61 60 61 62 64 65 66 67 68 69 70 70 72 73 72 69 69 71 69 69 69 70 75 75 75 75 74 74 74 72 71 73 71 73 74 70 70 71 70 69 64 62 64
62 62 61 62 63 65 66 67 68 69 69 69 71 72 72 72 70 72 72 69 72 70 73 74 75 74 74 74 75 71 73 74 74 72 73 71 71 71 70 71 69 66 62
63 62 62 61 63 64 65 66 68 68 69 69 69 69 70 71 71 72 72 72 72 73 73 74 74 74 75 75 75 73 74 74 72 71 73 73 70 70 71 70 71 70 68
61 63 63 63 63 63 64 65 66 68 68 68 70 70 69 69 70 70 71 73 73 74 74 74 74 74 74 75 75 74 73 73 73 73 73 73 75 70 70 71 71 70 70
61 64 64 64 64 64 63 63 64 65 67 69 70 69 70 70 69 70 70 72 73 73 74 74 74 74 74 75 75 74 72 73 73 73 73 72 71 75 74 71 74 72 73
46 50 53 58 64 65 64 63 64 64 65 68 68 69 68 69 69 70 70 70 72 73 72 74 74 74 74 75 75 74 74 73 73 72 73 73 73 74 72 73 72 71 72
41 43 44 50 55 60 65 66 66 64 65 66 66 68 68 69 69 71 71 70 71 71 72 72 73 74 74 74 74 74 74 74 73 73 73 73 73 74 75 73 74 73 73
40 41 41 44 48 52 57 63 66 66 66 66 66 67 69 70 69 70 72 71 71 71 72 71 71 72 71 70 73 74 74 74 73 73 73 73 73 71 71 71 73 75 73
39 40 41 42 43 49 53 58 63 66 68 67 67 69 70 71 71 71 71 72 71 71 72 71 71 71 68 64 67 71 73 74 74 73 74 74 72 71 67 67 68 71 74
40 40 40 40 42 44 48 56 62 66 67 68 67 68 70 71 71 71 71 71 71 72 71 71 71 71 72 64 65 68 70 73 74 74 74 72 70 72 73 68 66 67 66
40 41 40 42 43 43 46 52 59 62 65 69 67 68 69 70 71 71 71 71 71 71 71 71 72 72 71 63 63 66 71 73 73 73 74 74 73 73 73 73 72 73 73
40 40 41 43 46 45 45 48 53 58 60 66 68 69 69 69 70 70 71 71 70 70 70 70 71 71 72 61 61 65 70 70 73 73 73 74 74 69 65 72 72 73 73
40 40 42 45 44 46 44 46 48 54 58 61 66 68 70 69 71 71 71 71 71 70 69 69 70 68 72 63 59 63 66 68 67 72 74 66 71 65 62 72 72 72 72
40 42 43 45 46 46 46 48 48 48 54 57 66 66 66 69 69 70 73 72 71 71 71 70 71 71 70 70 59 58 69 66 67 66 66 66 62 61 59 62 73 73 71
40 41 43 44 46 47 47 48 49 49 53 58 63 63 65 65 67 70 69 73 73 73 72 72 71 70 71 64 61 57 59 66 68 69 67 68 59 58 58 59 63 61 63
40 41 42 45 46 47 48 49 50 52 52 57 62 61 63 65 66 69 69 69 71 72 73 70 70 70 70 71 59 56 57 58 67 69 67 61 56 56 59 58 60 59 68
40 41 42 43 44 46 47 48 49 52 52 53 59 60 60 62 64 64 66 67 66 69 71 71 70 70 70 70 71 68 63 58 62 64 68 66 64 62 65 66 62 67 69
40 40 41 42 44 46 46 46 47 49 51 51 55 59 58 60 62 63 64 67 70 67 66 68 69 69 69 69 66 67 70 68 65 66 68 69 69 69 69 70 70 70 70
42 43 43 43 43 43 44 46 48 50 52 51 53 56 56 58 61 61 62 57 56 54 53 54 60 68 63 58 54 53 53 53 53 66 69 70 70 69 69 70 70 70 69

GFSMW_sfc_dewp_072.txt.gz
Dewpoint
60 61 64 66 65 65 65 67 68 71 70 69 67 67 67 68 68 69 72 72 72 73 75 70 71 70 67 69 71 67 68 62 66 61 59 60 63 62 63 63 63 64 65
59 61 64 64 63 64 64 67 69 72 71 67 68 68 68 68 68 69 72 71 72 73 72 72 70 70 66 71 71 70 62 62 65 60 60 57 58 59 59 62 62 63 63
58 61 63 64 62 63 64 67 70 72 71 70 70 72 71 73 75 71 70 71 73 73 73 74 70 72 69 65 70 69 69 60 65 68 60 57 55 58 59 62 60 65 63
60 60 61 63 61 63 65 67 70 72 72 73 71 72 67 65 65 68 68 71 73 72 72 73 73 74 68 71 70 69 69 69 60 62 64 69 67 59 56 57 60 61 59
59 60 60 62 62 63 64 66 71 72 72 73 72 70 71 66 68 67 75 73 75 73 72 73 74 74 70 72 72 73 73 66 62 61 63 67 65 68 60 54 56 58 59
60 60 61 62 62 63 64 66 70 73 73 73 74 73 72 71 66 68 76 68 72 71 73 72 74 74 73 72 71 73 73 71 68 64 66 63 63 61 61 58 61 59 61
60 60 61 61 62 62 64 65 69 72 72 72 73 73 73 73 72 75 66 69 68 67 72 75 76 72 75 72 72 75 72 74 68 71 64 66 67 66 65 61 60 59 61
59 60 61 62 63 63 64 66 68 71 72 72 73 74 74 70 69 70 66 67 66 68 72 73 72 73 73 72 73 70 68 70 70 71 72 66 68 68 67 64 62 59 59
60 61 61 62 63 64 65 67 68 71 71 70 72 73 73 72 69 71 71 67 70 67 72 71 72 72 73 73 75 70 72 71 72 71 71 69 67 68 68 68 66 63 60
61 61 61 62 63 63 64 66 67 70 71 70 70 71 72 73 72 72 72 71 69 72 71 73 73 72 73 75 75 70 73 73 69 67 72 72 66 68 67 66 67 66 63
62 63 65 63 63 63 64 65 66 68 69 70 70 70 70 71 72 71 72 72 71 72 73 74 74 73 72 73 75 73 71 73 72 71 71 73 73 67 65 66 66 66 66
52 55 57 59 63 64 64 64 65 65 67 68 70 70 71 70 69 71 71 72 72 72 73 75 74 74 73 74 74 72 70 71 71 72 72 71 68 73 73 68 72 69 70
44 45 45 51 56 61 64 65 64 63 64 68 68 70 69 70 70 70 71 71 72 72 71 73 75 74 74 74 74 73 72 72 72 72 72 72 72 72 68 71 68 67 69
42 41 45 50 53 54 55 63 66 66 65 65 67 68 69 69 69 70 71 71 72 72 72 72 73 73 71 73 73 74 73 72 72 73 72 72 72 73 74 72 73 72 70
40 41 41 44 50 51 53 56 62 65 68 68 67 68 70 70 70 71 72 72 72 72 72 71 72 72 71 68 72 73 74 73 73 73 73 73 71 70 71 70 74 75 71
41 41 42 43 43 46 50 52 54 62 65 69 68 69 70 71 71 72 72 72 72 72 72 71 70 70 67 64 66 71 72 73 73 73 74 74 72 71 68 68 68 71 74
42 42 41 42 45 45 46 47 51 56 60 63 69 69 70 71 71 72 72 72 72 72 73 72 71 72 72 63 63 67 69 70 72 73 72 71 68 72 72 69 67 67 66
41 42 40 42 45 46 46 48 48 51 54 60 65 69 69 69 71 73 72 72 72 72 72 73 74 74 72 63 62 64 71 71 72 72 72 74 73 72 72 72 71 72 72
40 40 41 42 47 48 48 50 49 49 50 55 60 65 66 70 70 70 72 73 72 72 71 72 73 74 74 62 61 65 69 68 72 72 73 74 74 69 64 72 72 72 72
40 41 42 43 44 48 47 48 48 50 50 51 53 58 65 66 68 71 74 76 75 73 71 71 72 69 73 64 59 64 66 68 65 71 74 66 70 64 62 74 73 72 71
41 42 43 43 45 47 48 49 50 50 51 52 53 57 61 64 65 69 73 74 75 75 74 73 72 72 71 72 59 58 69 66 65 64 62 63 61 61 59 62 74 72 69
41 41 42 43 45 47 48 49 50 52 53 54 53 54 56 61 59 66 66 71 75 75 74 75 72 71 73 65 61 57 59 66 68 68 64 67 57 57 58 60 63 60 63
41 40 40 43 44 46 47 48 50 52 52 52 54 54 55 56 61 63 65 65 70 70 75 75 70 69 70 71 61 57 57 58 66 68 66 59 56 53 57 58 60 60 68
41 41 41 42 43 45 46 48 49 50 50 51 52 53 52 53 57 56 56 60 63 63 65 68 73 74 70 70 70 69 65 59 62 64 66 65 63 61 64 66 63 67 68
41 41 41 41 43 44 45 45 46 47 47 48 49 51 50 52 55 56 55 58 62 62 63 68 69 70 69 68 65 65 70 70 66 66 68 68 68 68 68 68 68 68 68
42 42 43 43 43 43 44 46 46 45 46 46 46 46 48 49 50 51 53 52 54 54 52 52 57 67 61 55 55 53 54 55 55 67 68 68 68 68 68 67 66 67 66

GFSMW_sfc_dewp_075.txt.gz
Dewpoint
58 60 58 62 63 63 64 66 67 71 69 67 65 65 70 73 73 74 71 72 74 72 73 68 70 73 70 71 69 67 68 63 64 68 60 59 60 60 59 60 60 62 62
58 59 58 62 63 63 64 67 68 72 70 68 70 66 71 71 73 73 71 71 71 73 71 74 70 73 67 71 69 73 71 64 64 67 64 57 57 56 57 59 58 61 60
57 58 61 62 64 63 63 66 69 71 72 72 69 69 69 72 71 72 68 70 72 71 72 73 76 71 73 66 70 68 72 69 61 70 63 62 60 58 59 61 59 63 60
59 58 60 62 63 62 61 66 69 71 71 72 72 74 68 68 65 70 73 69 72 71 71 72 72 73 71 73 69 65 73 69 62 59 60 68 67 68 54 56 58 59 59
58 59 61 62 63 61 62 66 70 73 73 73 75 70 72 68 67 72 73 74 74 72 71 73 73 73 71 73 73 72 73 64 63 62 61 66 61 65 62 54 56 57 58
60 61 62 63 63 60 61 65 71 73 73 72 73 74 73 73 72 71 69 68 67 69 72 72 73 74 75 73 70 73 72 73 71 67 65 67 66 64 58 56 61 58 60
59 61 62 61 62 62 60 64 70 73 73 72 72 73 73 72 73 72 68 68 73 65 73 73 74 72 74 72 73 75 73 70 69 72 70 66 67 65 61 68 59 59 59
59 59 61 63 63 63 60 63 68 72 72 72 74 74 74 69 68 71 69 67 71 71 75 73 72 72 73 72 73 70 68 73 69 70 73 70 66 70 67 66 62 58 59
60 60 60 62 63 64 63 63 69 71 72 71 73 74 74 73 70 74 71 68 73 73 72 72 72 72 72 73 74 69 72 75 72 71 72 70 67 64 64 63 63 63 60
64 64 64 62 63 63 62 62 65 70 71 71 71 71 73 74 73 71 73 72 73 71 73 72 72 71 72 72 74 73 74 73 69 65 74 74 68 65 64 63 64 64 63
58 60 61 64 66 65 64 64 64 67 69 70 71 71 71 72 73 71 71 73 71 72 72 75 73 72 72 72 75 76 72 72 73 73 71 74 77 67 63 63 63 64 64
49 55 58 60 60 63 65 68 64 64 66 69 72 70 71 71 71 72 72 73 74 72 72 73 73 73 72 73 74 72 69 71 71 71 74 70 68 76 76 68 76 70 73
46 48 52 52 54 58 64 65 67 66 63 67 67 69 69 70 71 71 72 74 74 74 70 72 74 72 72 74 75 74 72 71 71 71 72 72 73 75 71 73 69 67 69
45 46 47 50 51 54 57 61 62 66 67 70 66 68 70 70 71 72 73 72 74 74 73 73 74 73 71 72 73 74 74 73 72 72 72 72 73 75 76 73 76 73 72
42 43 44 48 51 54 54 56 58 63 66 68 70 72 70 72 72 72 74 73 74 74 74 74 74 73 71 67 73 73 73 75 73 73 73 73 72 70 72 70 75 76 73
42 42 43 45 47 48 53 55 54 57 62 63 67 71 71 73 73 73 73 74 74 75 75 73 73 73 67 64 65 70 73 74 75 75 75 75 72 70 67 67 68 71 75
42 42 42 44 47 46 49 51 56 55 57 60 61 65 69 71 72 74 74 74 74 74 76 75 74 74 74 64 63 66 69 72 74 75 76 72 66 72 73 69 67 68 66
42 43 40 44 47 47 48 50 49 53 54 56 55 59 62 67 70 73 73 74 74 74 74 74 76 76 74 64 62 64 73 72 73 74 75 76 75 74 74 74 73 73 74
40 41 41 42 47 48 52 54 51 52 53 52 54 57 58 63 66 67 72 75 74 73 73 73 75 76 76 63 61 64 69 69 73 73 74 74 75 70 65 73 74 75 74
42 42 43 43 43 47 47 49 50 53 53 54 54 55 56 60 65 66 65 71 75 72 71 72 73 71 75 67 60 63 68 69 68 72 74 66 70 65 63 74 74 74 74
42 43 44 44 46 47 47 49 50 50 52 53 54 55 56 56 60 64 64 67 70 74 73 72 74 76 74 74 60 58 71 69 67 67 66 67 62 60 59 60 75 73 74
40 41 42 43 45 46 47 49 50 52 53 54 54 55 56 55 52 61 64 64 66 69 73 75 74 76 76 67 63 58 59 68 70 69 65 67 57 56 58 60 63 62 64
41 41 42 43 45 46 47 48 50 52 52 53 53 53 54 55 57 56 61 58 65 63 65 71 72 73 76 73 62 58 58 59 68 70 67 58 57 53 56 57 59 60 68
41 41 43 43 45 46 47 47 48 49 50 50 51 51 51 52 53 52 53 53 50 55 57 65 72 73 75 76 72 72 67 61 64 66 68 66 63 60 64 65 63 65 68
41 42 43 43 45 46 46 46 47 47 46 47 46 47 47 49 51 54 51 50 56 53 56 58 62 65 68 69 63 61 69 74 70 69 70 69 69 69 69 70 71 71 70
42 42 44 44 45 45 45 46 46 46 45 45 43 43 44 45 45 47 49 48 48 47 46 47 53 58 53 53 54 53 54 51 52 69 69 68 69 69 68 69 70 71 69

GFSMW_sfc_dewp_078.txt.gz
Dewpoint
58 60 59 59 59 64 67 69 72 74 72 71 70 70 71 73 73 77 74 74 73 76 77 75 75 75 71 67 76 74 71 71 69 72 68 68 65 64 67 66 66 67 68
58 60 59 60 61 64 67 70 73 74 73 71 74 69 74 74 73 75 75 74 74 76 75 75 74 73 74 75 74 73 70 72 68 69 69 63 66 64 62 66 64 66 66
59 59 59 63 62 65 67 70 73 74 73 75 75 73 71 72 70 72 75 74 75 75 76 76 77 69 76 74 74 73 70 72 68 70 70 64 63 67 66 65 66 66 68
59 60 61 63 63 66 67 70 72 74 73 75 74 76 72 71 73 73 74 74 75 75 73 76 77 75 72 71 75 72 72 72 71 69 67 69 70 68 64 66 65 68 62
59 59 58 63 64 64 64 69 71 74 73 75 77 74 75 74 73 73 73 75 77 75 73 75 77 74 73 70 75 75 75 75 70 65 71 70 71 70 70 63 64 67 66
59 60 60 64 64 64 62 68 71 74 75 74 75 76 74 71 70 74 71 75 73 74 74 74 77 76 72 74 71 75 75 76 76 74 73 72 69 69 68 66 65 66 67
62 59 60 63 63 62 62 69 72 73 74 73 73 75 75 75 72 73 70 73 71 72 75 77 78 76 77 75 76 77 77 74 74 77 73 73 70 72 68 71 67 66 66
61 65 61 64 63 63 64 68 72 73 74 74 75 75 76 75 72 72 73 72 70 73 76 76 76 77 75 76 76 76 75 75 74 74 75 74 72 73 68 71 69 67 68
64 65 63 64 66 64 63 68 72 73 74 73 75 75 75 75 74 75 76 72 72 74 74 75 75 75 74 77 76 74 75 75 73 75 74 74 70 72 70 71 71 69 67
62 64 65 64 67 65 63 67 72 73 73 73 74 74 75 76 76 77 76 77 72 71 71 72 73 75 74 75 76 76 72 74 72 72 74 75 68 74 71 70 72 71 70
57 61 61 63 66 67 69 69 70 72 73 73 73 74 74 74 75 75 76 76 76 72 70 66 67 73 75 76 76 75 73 73 74 76 75 74 75 72 74 73 73 71 72
53 56 58 58 60 63 65 65 69 69 71 72 74 73 74 74 74 75 75 77 77 76 73 69 69 73 75 75 76 74 73 73 74 74 74 74 71 75 76 74 74 74 74
48 52 56 56 57 57 61 64 65 66 68 70 71 72 73 74 74 75 75 76 76 76 74 75 76 76 75 76 75 75 75 73 73 75 75 74 75 75 74 76 75 73 73
48 51 53 54 56 56 57 59 64 64 66 68 70 71 72 72 72 75 76 75 77 76 75 75 76 75 75 75 75 75 75 75 74 75 75 75 75 75 75 74 75 73 74
44 46 49 52 53 54 55 56 58 61 64 65 68 69 69 73 76 76 76 76 75 75 76 75 75 75 74 70 74 75 75 74 73 74 74 75 75 72 73 73 75 75 74
43 44 46 48 50 51 55 56 57 57 60 61 64 65 70 72 73 75 75 77 75 76 75 75 75 74 71 66 66 72 74 75 75 73 75 75 73 71 67 67 68 72 75
43 43 44 46 49 48 51 54 58 59 59 59 58 61 65 67 70 73 75 76 76 76 75 75 75 74 74 66 63 66 71 73 75 75 74 73 68 72 73 67 66 66 66
43 43 41 45 48 49 49 53 52 57 57 58 57 58 59 62 67 70 69 71 76 76 76 75 75 75 74 66 64 64 71 73 73 74 75 74 73 74 75 75 74 72 72
42 42 42 43 49 50 52 55 53 55 55 56 58 58 57 57 61 67 68 69 71 74 75 75 75 75 75 65 62 64 70 70 72 73 73 73 75 70 66 73 73 75 75
43 43 43 43 45 49 47 50 53 55 54 55 57 59 60 59 59 61 65 67 69 70 73 74 74 70 74 67 62 63 71 70 69 70 72 66 69 64 62 71 72 72 72
43 43 43 44 46 47 47 50 51 51 54 55 55 57 58 59 61 62 61 66 67 68 70 70 74 74 73 74 61 60 73 71 70 70 69 69 62 60 59 60 73 71 71
41 41 43 44 46 47 47 49 52 54 55 55 55 57 58 55 54 59 61 61 63 64 66 69 70 72 74 67 65 59 60 68 72 71 70 70 59 57 58 59 61 61 64
41 40 42 44 46 47 48 48 52 53 53 53 54 54 55 55 56 57 59 58 59 61 61 62 62 66 70 72 63 60 59 59 68 72 69 63 59 55 56 56 57 58 66
41 41 42 43 45 48 47 48 50 52 52 52 52 52 51 51 52 52 52 52 54 52 53 56 60 65 72 73 75 75 72 63 64 65 68 67 65 62 64 65 62 62 66
41 43 43 43 44 47 48 46 49 49 46 48 48 48 47 48 50 51 51 52 54 53 53 54 56 56 59 69 64 62 67 66 66 63 71 71 71 70 70 69 70 70 69
42 44 43 43 44 44 45 48 48 48 44 43 43 43 43 44 45 46 47 48 47 46 45 44 48 52 50 49 48 49 49 53 53 66 70 71 71 71 70 70 69 69 69

GFSMW_sfc_dewp_084.txt.gz
Dewpoint
56 57 64 65 66 65 66 65 67 67 67 69 69 69 68 67 70 71 69 70 70 72 70 71 70 69 68 67 68 66 65 66 65 65 63 65 65 64 65 65 67 68 68
56 56 60 62 63 63 66 67 68 67 66 67 69 68 69 70 70 71 70 71 71 71 72 71 69 69 69 68 69 67 67 67 66 62 63 59 59 61 61 65 64 65 68
57 56 58 59 63 63 67 67 69 66 66 68 70 70 70 68 68 69 70 72 71 72 70 70 70 69 70 69 68 66 65 66 63 62 63 61 59 60 60 61 64 63 64
60 59 58 60 62 63 68 68 69 68 67 70 68 68 68 67 67 68 70 72 72 71 72 71 70 69 68 68 70 70 69 67 65 64 65 65 64 59 54 59 61 60 62
61 60 57 61 62 64 67 67 68 69 69 70 69 67 67 70 69 70 69 71 71 71 71 72 70 68 68 68 68 69 68 70 68 66 67 66 67 66 61 55 56 60 62
61 62 61 62 62 64 66 69 69 68 67 69 70 69 68 68 67 68 69 71 71 71 72 71 71 71 70 69 67 68 68 68 69 69 67 66 63 65 65 60 57 58 58
62 60 61 62 63 63 66 69 69 68 68 68 70 70 68 65 66 68 68 69 70 70 70 71 71 70 70 69 69 70 69 68 66 69 67 69 68 68 66 66 63 60 62
64 62 62 62 64 65 66 67 70 68 69 69 70 70 69 68 66 68 70 70 70 70 71 72 72 71 71 70 70 70 70 69 70 66 67 68 66 68 68 65 63 62 64
65 66 66 67 66 66 66 66 69 69 69 70 70 70 70 69 69 69 68 69 70 70 71 72 72 72 71 70 71 69 69 70 69 69 69 68 67 66 69 68 67 62 60
61 64 65 66 68 68 69 68 67 70 70 70 70 71 70 70 70 69 67 69 69 72 71 71 72 72 71 71 71 70 69 69 68 67 67 67 69 65 69 69 68 67 63
59 60 63 66 67 68 68 68 68 69 68 68 68 71 72 71 71 71 71 71 70 71 70 69 68 69 70 72 72 70 70 69 69 68 70 69 70 69 70 69 68 68 68
56 58 59 62 65 65 67 67 67 67 67 68 69 69 70 71 71 71 71 71 70 69 69 67 66 66 68 71 71 70 70 70 69 69 69 69 69 69 70 70 69 69 69
54 55 57 58 61 63 65 66 67 67 67 67 67 68 68 70 70 70 71 72 70 70 69 67 66 66 67 70 71 71 70 70 70 69 69 70 68 68 69 69 68 69 70
51 54 55 56 58 59 61 64 65 66 67 66 67 67 67 66 67 69 70 71 70 70 68 66 66 66 67 70 71 71 70 71 71 70 70 70 70 69 68 69 68 68 69
47 50 53 55 56 57 59 60 61 62 65 65 66 66 67 67 68 68 67 67 70 72 70 69 69 69 70 70 70 72 70 70 70 71 72 71 72 70 68 70 69 69 69
46 48 50 52 55 55 56 60 59 60 60 61 61 63 65 65 66 68 68 68 68 71 72 72 71 72 73 68 68 70 71 70 70 69 70 70 70 70 68 68 68 68 69
45 47 49 50 51 53 56 54 57 59 58 59 59 60 60 61 61 65 67 66 66 68 70 71 71 71 71 67 65 66 70 71 71 71 70 69 69 69 70 69 66 66 66
44 45 47 48 50 53 53 55 56 57 58 58 59 59 60 60 61 61 62 63 66 67 68 69 70 71 72 65 64 65 67 68 71 72 71 70 70 70 70 69 70 70 68
43 46 48 47 46 47 50 53 53 53 53 53 55 56 57 57 57 60 61 62 63 63 64 66 68 69 70 64 61 64 68 68 67 68 71 72 72 68 63 68 70 70 71
45 45 46 46 47 48 50 48 49 50 50 51 52 53 53 54 54 55 57 60 61 62 63 64 65 64 67 64 61 63 68 68 69 70 69 65 68 64 63 68 69 68 69
44 45 46 46 46 47 48 47 48 48 49 50 50 50 51 50 50 51 52 55 57 59 61 62 64 65 65 66 61 60 68 70 71 68 70 69 62 59 59 60 70 69 68
44 45 45 46 46 46 46 46 47 48 48 48 48 47 48 47 48 48 48 48 49 50 53 55 58 62 64 61 62 59 57 63 69 71 71 71 60 55 55 57 59 59 60
42 42 44 45 47 46 45 46 46 46 45 44 44 44 45 43 44 44 45 45 45 45 46 47 46 47 54 56 61 57 58 59 64 67 65 59 56 55 59 59 57 57 62
41 42 43 44 43 45 45 45 45 44 43 42 42 42 41 42 42 42 43 43 44 44 43 43 43 43 45 48 57 55 58 61 61 62 62 61 61 59 62 63 66 63 64
41 42 42 43 43 44 43 43 43 43 41 41 41 41 41 40 40 41 42 42 43 43 43 43 44 44 45 46 46 45 48 49 54 51 57 60 60 61 64 68 69 69 68
43 41 41 43 42 42 43 43 43 42 41 40 40 40 40 40 40 41 40 43 43 43 42 41 42 42 44 44 42 40 41 42 44 51 54 56 58 59 60 63 67 69 68

GFSMW_sfc_dewp_087.txt.gz
Dewpoint
60 63 65 66 66 66 66 67 66 67 68 68 68 68 67 67 70 70 69 70 70 71 70 69 70 69 68 67 68 68 65 65 64 64 62 63 65 64 65 65 66 68 68
60 64 64 65 65 66 66 66 66 67 68 68 69 68 68 68 70 70 70 70 70 71 71 70 68 68 68 67 68 67 66 66 65 62 63 59 57 61 61 63 64 66 67
57 62 64 64 65 65 65 65 67 66 66 68 70 69 69 68 68 69 70 71 71 71 71 70 70 68 70 68 67 66 64 63 64 62 62 60 57 60 58 61 64 64 64
57 62 63 63 63 64 66 66 67 65 66 69 68 68 67 66 67 68 70 70 71 71 71 70 70 69 68 68 69 71 68 66 64 64 65 65 63 57 53 58 61 61 60
57 59 61 63 63 64 66 67 67 66 67 68 68 67 67 67 69 69 67 70 71 71 71 70 69 68 67 68 68 68 68 69 67 66 67 65 65 65 58 55 57 58 61
58 59 60 64 65 64 67 68 67 66 68 69 68 67 67 68 68 68 68 70 70 71 71 71 69 69 67 68 67 69 68 68 69 67 68 66 63 65 64 61 57 56 58
61 60 62 62 64 64 67 67 67 67 68 69 69 69 68 68 67 68 68 70 69 70 70 70 70 70 69 69 68 68 69 68 66 67 67 68 67 68 66 65 63 60 61
62 62 62 63 65 65 66 67 67 66 67 68 69 69 68 66 66 67 69 69 70 70 71 71 71 70 70 69 69 70 70 69 69 67 68 68 66 67 68 65 63 61 62
65 64 64 65 65 66 65 67 68 66 68 67 69 69 68 68 66 66 69 69 70 69 70 71 71 71 70 69 70 69 68 69 69 68 68 68 67 66 68 68 67 62 59
61 63 65 67 67 67 68 67 69 68 69 68 68 69 69 69 68 69 68 68 68 69 70 71 71 71 71 70 70 70 69 68 68 67 67 66 69 67 69 69 68 66 62
60 61 63 67 68 68 69 69 68 70 68 69 69 70 70 70 69 69 68 67 68 69 71 70 70 71 70 71 70 70 70 69 68 68 68 69 69 70 70 69 68 68 67
58 59 61 63 66 67 68 68 68 67 67 68 68 69 70 70 70 70 70 70 70 70 69 69 68 68 68 70 70 70 70 69 68 68 68 68 69 68 69 70 68 68 69
55 58 60 61 61 64 67 67 67 67 67 67 67 67 66 68 69 70 70 71 70 69 69 68 67 66 65 68 70 71 70 70 69 68 69 68 68 68 67 68 68 68 69
54 56 57 59 60 61 62 65 67 68 68 68 67 66 67 66 67 67 67 69 70 70 69 68 68 66 65 66 69 70 70 70 70 70 69 68 69 69 68 68 68 68 68
50 53 54 56 57 59 60 62 63 65 66 67 66 66 67 67 68 68 67 67 68 69 71 69 68 66 66 67 68 70 71 70 70 70 71 70 70 70 69 69 68 68 68
47 49 52 53 55 56 59 60 60 61 61 62 63 65 65 64 65 68 67 66 67 68 68 70 70 70 71 66 66 69 70 71 70 69 69 70 70 69 67 67 67 69 69
46 48 49 51 53 54 54 55 58 58 59 59 60 61 61 61 61 62 62 65 66 65 66 67 69 70 71 66 64 67 70 71 70 70 70 70 70 68 69 67 66 66 65
47 47 48 50 52 54 55 56 56 56 57 56 57 59 60 60 61 61 61 61 62 62 63 63 65 67 69 64 62 64 67 68 69 70 71 70 70 69 69 69 69 69 69
47 46 46 48 50 51 51 50 50 50 50 51 52 54 55 54 54 55 57 59 60 61 62 63 64 64 64 62 61 62 67 68 68 68 69 71 71 68 64 68 69 69 69
45 45 46 47 48 48 47 47 48 48 48 49 49 50 50 52 51 51 54 56 57 59 61 62 63 62 64 62 59 61 67 68 68 69 69 64 66 63 61 68 69 69 69
45 46 46 46 47 46 47 46 46 46 47 47 46 46 47 47 47 50 49 51 52 54 56 58 60 61 61 63 57 56 64 67 68 69 69 70 63 57 56 56 67 68 67
45 45 45 45 45 46 46 45 45 45 44 44 44 44 43 43 43 44 45 47 46 46 47 46 52 55 49 51 54 51 52 57 64 67 69 68 59 55 55 56 58 56 59
44 45 46 45 45 45 45 43 43 43 42 42 42 42 42 41 41 42 42 43 44 44 43 43 43 45 53 48 52 49 49 50 55 62 60 56 54 53 56 58 58 57 63
43 44 43 43 44 44 44 43 43 42 41 41 41 41 40 41 40 41 42 42 42 42 42 43 42 42 43 44 45 44 44 46 49 51 49 52 55 56 57 59 62 65 65
42 43 42 43 43 43 42 42 42 41 40 40 40 40 40 40 40 40 41 41 41 42 41 41 41 41 41 42 43 42 42 43 44 45 49 54 54 53 55 57 63 67 68
42 42 42 43 42 43 42 42 42 40 39 39 39 39 39 39 40 40 40 42 42 42 41 41 41 41 42 42 41 40 40 41 43 46 50 50 51 54 55 56 56 58 62